M I D A S
Marine Information and Data Acquisition System
Tripno 1830 of the Zeeleeuw from 2009-12-09 07:18:40 to 2009-12-09 15:15:33
Back to CruiseResearch ActivitiesStationsMapUnderway DataData graphs

EquipmentUnitsComment
TimeDGPSUTC
LatitudeDGPSDM.mWGS84
LongitudeDGPSDM.mWGS84
TemperatureSBE03/SBE38deg celciusITS90
ConductivitySBE21S/mITS90
SalinitySBE21 Practical Salinity Units
ChlorophylAChelsea fluorimeterg/lCalibrated in Aceton
Missing or incorrect values are displayed as -999
Sea surface data collected by the RV Zeeleeuw from 2009-12-09 07:27:41 to 2009-12-09 17:35:34
                                                                                    Next 1000 lines
Time Latitude Longitude Temperature Conductivity Salinity ChlorophylA
2009-12-09 07:27:51 51°13.661 2°55.956 16.6915 0.053014 0.316194 -0.373735
2009-12-09 07:27:56 51°13.662 2°55.954 16.6265 0.053117 0.316826 -0.373735
2009-12-09 07:28:01 51°13.663 2°55.952 16.6711 0.053014 0.316194 -0.373735
2009-12-09 07:28:06 51°13.665 2°55.949 16.7158 0.053117 0.316826 -0.373735
2009-12-09 07:28:11 51°13.666 2°55.945 16.7393 0.053014 0.3162 -0.373735
2009-12-09 07:28:17 51°13.668 2°55.94 16.7449 0.053014 0.316194 -0.373735
2009-12-09 07:28:22 51°13.669 2°55.934 16.8297 0.053014 0.316194 -0.373735
2009-12-09 07:28:28 51°13.671 2°55.927 16.7657 0.053014 0.316194 -0.373735
2009-12-09 07:28:34 51°13.672 2°55.92 16.85 0.053014 0.316194 -0.373735
2009-12-09 07:28:40 51°13.674 2°55.912 16.8064 0.053014 0.316194 -0.373735
2009-12-09 07:28:45 51°13.676 2°55.905 16.8118 0.053117 0.316826 -0.373735
2009-12-09 07:28:50 51°13.677 2°55.898 16.7669 0.053117 0.316826 -0.373735
2009-12-09 07:28:55 51°13.679 2°55.891 16.8063 0.053117 0.316826 -0.373735
2009-12-09 07:29:00 51°13.68 2°55.884 16.8245 0.053014 0.3162 -0.373735
2009-12-09 07:29:05 51°13.682 2°55.877 16.8198 0.053014 0.316194 -0.373735
2009-12-09 07:29:10 51°13.683 2°55.869 16.8298 0.053014 0.3162 -0.373735
2009-12-09 07:29:15 51°13.684 2°55.862 16.823 0.053014 0.3162 -0.373735
2009-12-09 07:29:20 51°13.686 2°55.854 16.8255 0.053117 0.316833 -0.373735
2009-12-09 07:29:25 51°13.688 2°55.847 16.8235 0.053014 0.316206 -0.373735
2009-12-09 07:29:30 51°13.69 2°55.839 16.8193 0.053014 0.316206 -0.373735
2009-12-09 07:29:35 51°13.692 2°55.832 16.8188 0.053117 0.316839 -0.373735
2009-12-09 07:29:40 51°13.695 2°55.824 16.8208 0.053014 0.316206 -0.373735
2009-12-09 07:29:45 51°13.697 2°55.817 16.8345 0.053117 0.316839 -0.373735
2009-12-09 07:29:50 51°13.7 2°55.81 16.8412 0.053014 0.316206 -0.373735
2009-12-09 07:29:55 51°13.703 2°55.802 16.8293 0.053014 0.316206 -0.373735
2009-12-09 07:30:00 51°13.706 2°55.794 16.8249 0.053014 0.316213 -0.373735
2009-12-09 07:30:05 51°13.709 2°55.787 16.8183 0.053014 0.316206 -0.373735
2009-12-09 07:30:10 51°13.712 2°55.78 16.8239 0.053014 0.316206 -0.373735
2009-12-09 07:30:15 51°13.716 2°55.773 16.8275 0.053014 0.316206 -0.373735
2009-12-09 07:30:20 51°13.719 2°55.765 16.8361 0.053014 0.316206 -0.373735
2009-12-09 07:30:25 51°13.722 2°55.759 16.8353 0.053014 0.316206 -0.373735
2009-12-09 07:30:30 51°13.725 2°55.752 16.8367 0.053014 0.316206 -0.373735
2009-12-09 07:30:35 51°13.726 2°55.746 16.836 0.053014 0.316206 -0.373735
2009-12-09 07:30:40 51°13.728 2°55.74 16.834 0.053014 0.3162 -0.373735
2009-12-09 07:30:45 51°13.731 2°55.735 16.823 0.053014 0.316206 -0.408559
2009-12-09 07:30:50 51°13.734 2°55.729 16.8153 0.053117 0.316839 -0.373735
2009-12-09 07:30:55 51°13.737 2°55.724 16.8264 0.053117 0.316839 -0.373735
2009-12-09 07:31:00 51°13.741 2°55.718 16.8494 0.053014 0.3162 -0.373735
2009-12-09 07:31:05 51°13.745 2°55.713 16.8571 0.053117 0.316839 -0.373735
2009-12-09 07:31:10 51°13.75 2°55.708 16.8536 0.053014 0.316206 -0.373735
2009-12-09 07:31:15 51°13.754 2°55.704 16.8339 0.053014 0.316206 -0.373735
2009-12-09 07:31:20 51°13.757 2°55.698 16.834 0.053014 0.316206 -0.373735
2009-12-09 07:31:25 51°13.761 2°55.694 16.8252 0.053014 0.316213 -0.373735
2009-12-09 07:31:30 51°13.764 2°55.688 16.8488 0.053014 0.316213 -0.373735
2009-12-09 07:31:35 51°13.768 2°55.683 16.856 0.053014 0.316213 -0.373735
2009-12-09 07:31:40 51°13.772 2°55.678 16.8288 0.053014 0.316213 -0.373735
2009-12-09 07:31:45 51°13.776 2°55.674 16.8517 0.053117 0.316852 -0.373735
2009-12-09 07:31:50 51°13.781 2°55.669 16.8058 0.053014 0.316219 -0.373735
2009-12-09 07:31:55 51°13.785 2°55.664 16.8454 0.053014 0.316219 -0.373735
2009-12-09 07:32:00 51°13.789 2°55.66 16.794 0.053117 0.316858 -0.373735
2009-12-09 07:32:04 51°13.793 2°55.656 16.8263 0.053117 0.316852 -0.373735
2009-12-09 07:32:10 51°13.799 2°55.652 16.8062 0.053014 0.316225 -0.373735
2009-12-09 07:32:15 51°13.804 2°55.649 16.8282 0.053014 0.316219 -0.373735
2009-12-09 07:32:20 51°13.809 2°55.646 16.8343 0.053014 0.316225 -0.373735
2009-12-09 07:32:25 51°13.815 2°55.643 16.8386 0.053014 0.316225 -0.373735
2009-12-09 07:32:30 51°13.821 2°55.64 16.8466 0.053014 0.316225 -0.373735
2009-12-09 07:32:35 51°13.826 2°55.637 16.8434 0.053014 0.316225 -0.373735
2009-12-09 07:32:40 51°13.832 2°55.635 16.8453 0.053117 0.316858 -0.373735
2009-12-09 07:32:45 51°13.839 2°55.633 16.8292 0.053014 0.316231 -0.373735
2009-12-09 07:32:50 51°13.845 2°55.631 16.8423 0.053014 0.316225 -0.373735
2009-12-09 07:32:55 51°13.851 2°55.63 16.8443 0.053014 0.316231 -0.373735
2009-12-09 07:32:59 51°13.856 2°55.629 16.8436 0.053014 0.316231 -0.373735
2009-12-09 07:33:04 51°13.863 2°55.628 16.8466 0.053117 0.316864 -0.373735
2009-12-09 07:33:10 51°13.87 2°55.627 16.8539 0.053014 0.316225 -0.373735
2009-12-09 07:33:15 51°13.876 2°55.627 16.8758 0.053117 0.316858 -0.373735
2009-12-09 07:33:20 51°13.881 2°55.628 16.8793 0.053014 0.316225 -0.373735
2009-12-09 07:33:24 51°13.886 2°55.628 16.8704 0.053014 0.316225 -0.373735
2009-12-09 07:33:30 51°13.892 2°55.629 16.8652 0.053014 0.316231 -0.373735
2009-12-09 07:33:35 51°13.897 2°55.63 16.8674 0.053014 0.316231 -0.373735
2009-12-09 07:33:39 51°13.9 2°55.632 16.8633 0.053014 0.316231 -0.373735
2009-12-09 07:33:44 51°13.905 2°55.633 16.8778 0.053014 0.316231 -0.373735
2009-12-09 07:33:50 51°13.91 2°55.635 16.8664 0.053117 0.316864 -0.373735
2009-12-09 07:33:55 51°13.913 2°55.637 16.8629 0.053117 0.316864 -0.373735
2009-12-09 07:33:59 51°13.916 2°55.639 16.8642 0.053014 0.316231 -0.373735
2009-12-09 07:34:05 51°13.92 2°55.641 16.8719 0.053014 0.316231 -0.373735
2009-12-09 07:34:10 51°13.923 2°55.643 16.8708 0.053014 0.316231 -0.373735
2009-12-09 07:34:15 51°13.926 2°55.645 16.8653 0.053117 0.316864 -0.373735
2009-12-09 07:34:20 51°13.929 2°55.647 16.8672 0.053117 0.316864 -0.373735
2009-12-09 07:34:24 51°13.93 2°55.648 16.8647 0.053117 0.316864 -0.373735
2009-12-09 07:34:29 51°13.932 2°55.649 16.8512 0.053117 0.31687 -0.373735
2009-12-09 07:34:34 51°13.933 2°55.65 16.8523 0.053014 0.316231 -0.373735
2009-12-09 07:34:39 51°13.935 2°55.65 16.8708 0.053117 0.316864 -0.373735
2009-12-09 07:34:44 51°13.935 2°55.65 16.8628 0.053014 0.316231 -0.373735
2009-12-09 07:34:49 51°13.936 2°55.649 16.866 0.053117 0.316864 -0.373735
2009-12-09 07:34:53 51°13.936 2°55.647 16.8706 0.053117 0.316864 -0.373735
2009-12-09 07:34:58 51°13.936 2°55.645 16.847 0.053117 0.31687 -0.373735
2009-12-09 07:35:03 51°13.936 2°55.641 16.6558 0.053117 0.31687 -0.373735
2009-12-09 07:35:08 51°13.937 2°55.637 16.566 0.053117 0.316877 -0.373735
2009-12-09 07:35:13 51°13.937 2°55.632 16.5811 0.053117 0.316877 -0.373735
2009-12-09 07:35:17 51°13.938 2°55.628 16.6776 0.053014 0.31625 -0.373735
2009-12-09 07:35:22 51°13.94 2°55.622 16.627 0.053014 0.31625 -0.373735
2009-12-09 07:35:27 51°13.941 2°55.617 16.7679 0.053117 0.316889 -0.373735
2009-12-09 07:35:32 51°13.944 2°55.611 16.8176 0.053117 0.316896 -0.373735
2009-12-09 07:35:37 51°13.946 2°55.605 16.8468 0.053117 0.316896 -0.373735
2009-12-09 07:35:42 51°13.949 2°55.598 16.8389 0.053117 0.316896 -0.373735
2009-12-09 07:35:47 51°13.953 2°55.59 16.8309 0.053014 0.316257 -0.373735
2009-12-09 07:35:51 51°13.956 2°55.584 16.8277 0.053014 0.316257 -0.373735
2009-12-09 07:35:56 51°13.961 2°55.575 16.8262 0.053014 0.31625 -0.373735
2009-12-09 07:36:01 51°13.966 2°55.566 16.8033 0.053117 0.316883 -0.373735
2009-12-09 07:36:06 51°13.971 2°55.557 16.7518 0.053117 0.316877 -0.373735
2009-12-09 07:36:11 51°13.976 2°55.547 16.7761 0.053014 0.316244 -0.373735
2009-12-09 07:36:16 51°13.981 2°55.538 16.7243 0.053014 0.31625 -0.373735
2009-12-09 07:36:21 51°13.987 2°55.53 16.7773 0.053117 0.316889 -0.373735
2009-12-09 07:36:26 51°13.993 2°55.521 16.708 0.053117 0.316889 -0.373735
2009-12-09 07:36:31 51°13.999 2°55.512 16.7859 0.053117 0.316883 -0.373735
2009-12-09 07:36:36 51°14.006 2°55.504 16.7572 0.053117 0.316889 -0.373735
2009-12-09 07:36:41 51°14.013 2°55.496 16.7917 0.053117 0.316889 -0.373735
2009-12-09 07:36:46 51°14.021 2°55.488 16.7135 0.053014 0.31625 -0.373735
2009-12-09 07:36:51 51°14.028 2°55.48 16.7713 0.053014 0.31625 -0.373735
2009-12-09 07:36:56 51°14.037 2°55.472 16.8132 0.053117 0.316877 -0.373735
2009-12-09 07:37:01 51°14.045 2°55.465 16.8106 0.053014 0.316244 -0.373735
2009-12-09 07:37:06 51°14.054 2°55.457 16.7924 0.053014 0.316244 -0.373735
2009-12-09 07:37:11 51°14.062 2°55.449 16.7658 0.053117 0.31687 -0.373735
2009-12-09 07:37:16 51°14.071 2°55.441 16.7837 0.053014 0.316244 -0.373735
2009-12-09 07:37:21 51°14.08 2°55.434 16.7863 0.053014 0.316244 -0.373735
2009-12-09 07:37:26 51°14.089 2°55.426 16.7841 0.053014 0.316244 -0.373735
2009-12-09 07:37:31 51°14.099 2°55.419 16.7985 0.053117 0.316883 -0.373735
2009-12-09 07:37:36 51°14.109 2°55.412 16.7974 0.053117 0.316883 -0.373735
2009-12-09 07:37:41 51°14.119 2°55.404 16.8213 0.053014 0.316257 -0.373735
2009-12-09 07:37:46 51°14.13 2°55.397 16.8268 0.053014 0.316263 -0.373735
2009-12-09 07:37:51 51°14.14 2°55.389 16.8332 0.053014 0.316263 -0.373735
2009-12-09 07:37:56 51°14.15 2°55.38 16.8419 0.053117 0.316896 -0.373735
2009-12-09 07:38:01 51°14.16 2°55.371 16.8287 0.053117 0.316896 -0.373735
2009-12-09 07:38:06 51°14.171 2°55.362 16.8391 0.053117 0.316896 -0.373735
2009-12-09 07:38:11 51°14.181 2°55.352 16.8141 0.053117 0.316896 -0.373735
2009-12-09 07:38:16 51°14.191 2°55.341 16.8221 0.053014 0.316263 -0.373735
2009-12-09 07:38:21 51°14.202 2°55.33 16.7691 0.053014 0.316263 -0.373735
2009-12-09 07:38:25 51°14.209 2°55.32 16.8 0.053014 0.316263 -0.373735
2009-12-09 07:38:31 51°14.221 2°55.306 16.8067 0.053014 0.316263 -0.373735
2009-12-09 07:38:36 51°14.231 2°55.293 16.7557 0.053014 0.316269 -0.373735
2009-12-09 07:38:41 51°14.24 2°55.279 16.8358 0.053117 0.316896 -0.373735
2009-12-09 07:38:46 51°14.25 2°55.265 16.8199 0.053014 0.316275 -0.373735
2009-12-09 07:38:51 51°14.259 2°55.249 16.7251 0.053014 0.316275 -0.373735
2009-12-09 07:38:56 51°14.268 2°55.233 16.8148 0.053014 0.316269 -0.373735
2009-12-09 07:39:01 51°14.277 2°55.216 16.6696 0.053117 0.316915 -0.373735
2009-12-09 07:39:06 51°14.286 2°55.198 16.6681 0.053014 0.316275 -0.373735
2009-12-09 07:39:11 51°14.295 2°55.18 16.7468 0.053014 0.316269 -0.373735
2009-12-09 07:39:16 51°14.305 2°55.162 16.7065 0.053117 0.316908 -0.373735
2009-12-09 07:39:21 51°14.314 2°55.143 16.6693 0.053117 0.316908 -0.373735
2009-12-09 07:39:26 51°14.324 2°55.124 16.6495 0.053117 0.316902 -0.373735
2009-12-09 07:39:31 51°14.334 2°55.106 16.6534 0.053117 0.316896 -0.373735
2009-12-09 07:39:36 51°14.344 2°55.086 16.7281 0.053117 0.316896 -0.373735
2009-12-09 07:39:41 51°14.355 2°55.068 16.6849 0.053117 0.316908 -0.373735
2009-12-09 07:39:45 51°14.362 2°55.052 16.6035 0.053117 0.316902 -0.373735
2009-12-09 07:39:51 51°14.375 2°55.031 16.6838 0.053117 0.316902 -0.373735
2009-12-09 07:39:56 51°14.386 2°55.014 16.6648 0.053117 0.316902 -0.373735
2009-12-09 07:40:01 51°14.397 2°54.998 16.6642 0.053117 0.316908 -0.373735
2009-12-09 07:40:06 51°14.409 2°54.982 16.676 0.053117 0.316908 -0.373735
2009-12-09 07:40:11 51°14.421 2°54.968 16.5952 0.053117 0.316908 -0.373735
2009-12-09 07:40:16 51°14.434 2°54.954 16.7134 0.053117 0.316915 -0.373735
2009-12-09 07:40:21 51°14.448 2°54.941 16.5465 0.053014 0.316288 -0.373735
2009-12-09 07:40:26 51°14.461 2°54.929 16.5135 0.053014 0.316288 -0.373735
2009-12-09 07:40:31 51°14.475 2°54.918 16.5775 0.053014 0.316282 -0.373735
2009-12-09 07:40:36 51°14.49 2°54.907 16.6655 0.053117 0.316915 -0.373735
2009-12-09 07:40:41 51°14.505 2°54.897 16.5912 0.053014 0.316288 -0.373735
2009-12-09 07:40:46 51°14.52 2°54.886 16.6602 0.053117 0.316921 -0.373735
2009-12-09 07:40:51 51°14.535 2°54.877 16.5839 0.053117 0.316921 -0.373735
2009-12-09 07:40:56 51°14.549 2°54.866 16.6578 0.053117 0.316927 -0.373735
2009-12-09 07:41:01 51°14.563 2°54.856 16.6424 0.053014 0.316294 -0.373735
2009-12-09 07:41:06 51°14.577 2°54.844 16.5458 0.053014 0.316294 -0.373735
2009-12-09 07:41:11 51°14.591 2°54.833 16.6195 0.053117 0.316927 -0.373735
2009-12-09 07:41:16 51°14.606 2°54.822 16.5972 0.053117 0.316927 -0.373735
2009-12-09 07:41:21 51°14.62 2°54.811 16.5837 0.053117 0.316927 -0.373735
2009-12-09 07:41:25 51°14.631 2°54.801 16.6501 0.053117 0.316933 -0.373735
2009-12-09 07:41:31 51°14.648 2°54.788 16.6194 0.053117 0.316933 -0.373735
2009-12-09 07:41:36 51°14.661 2°54.776 16.6166 0.053117 0.316927 -0.373735
2009-12-09 07:41:41 51°14.676 2°54.764 16.6003 0.053117 0.316933 -0.373735
2009-12-09 07:41:46 51°14.69 2°54.752 16.5383 0.053014 0.316301 -0.373735
2009-12-09 07:41:51 51°14.704 2°54.739 16.6227 0.053014 0.316301 -0.373735
2009-12-09 07:41:56 51°14.717 2°54.726 16.5753 0.053117 0.316927 -0.373735
2009-12-09 07:42:01 51°14.731 2°54.714 16.5747 0.053117 0.316927 -0.373735
2009-12-09 07:42:06 51°14.745 2°54.701 16.6161 0.053117 0.316927 -0.373735
2009-12-09 07:42:11 51°14.758 2°54.689 16.602 0.053117 0.316927 -0.373735
2009-12-09 07:42:16 51°14.772 2°54.676 16.6112 0.053117 0.316927 -0.373735
2009-12-09 07:42:21 51°14.786 2°54.664 16.6089 0.053117 0.316927 -0.373735
2009-12-09 07:42:25 51°14.796 2°54.653 16.6222 0.053014 0.316301 -0.373735
2009-12-09 07:42:31 51°14.813 2°54.638 16.575 0.053117 0.31694 -0.373735
2009-12-09 07:42:36 51°14.826 2°54.625 16.4839 0.053117 0.316933 -0.373735
2009-12-09 07:42:41 51°14.84 2°54.612 16.6025 0.053117 0.316933 -0.373735
2009-12-09 07:42:46 51°14.854 2°54.6 16.5872 0.053014 0.316307 -0.373735
2009-12-09 07:42:51 51°14.867 2°54.587 16.5747 0.053014 0.316307 -0.373735
2009-12-09 07:42:56 51°14.88 2°54.574 16.581 0.053117 0.316933 -0.373735
2009-12-09 07:43:01 51°14.894 2°54.562 16.5139 0.053117 0.31694 -0.373735
2009-12-09 07:43:06 51°14.908 2°54.549 16.5811 0.053117 0.31694 -0.373735
2009-12-09 07:43:11 51°14.922 2°54.537 16.5662 0.053117 0.31694 -0.373735
2009-12-09 07:43:16 51°14.936 2°54.524 16.5268 0.053117 0.31694 -0.373735
2009-12-09 07:43:21 51°14.949 2°54.511 16.5434 0.053117 0.31694 -0.373735
2009-12-09 07:43:26 51°14.963 2°54.499 16.5837 0.053117 0.31694 -0.373735
2009-12-09 07:43:31 51°14.977 2°54.486 16.4929 0.053117 0.31694 -0.373735
2009-12-09 07:43:36 51°14.991 2°54.473 16.5449 0.053117 0.31694 -0.373735
2009-12-09 07:43:41 51°15.005 2°54.46 16.5295 0.053117 0.31694 -0.373735
2009-12-09 07:43:45 51°15.016 2°54.45 16.5404 0.053117 0.31694 -0.373735
2009-12-09 07:43:51 51°15.032 2°54.434 16.5576 0.053117 0.31694 -0.373735
2009-12-09 07:43:56 51°15.046 2°54.421 16.5489 0.053117 0.316946 -0.373735
2009-12-09 07:44:01 51°15.06 2°54.408 16.54 0.053117 0.316946 -0.373735
2009-12-09 07:44:06 51°15.074 2°54.395 16.5023 0.053117 0.316946 -0.373735
2009-12-09 07:44:11 51°15.087 2°54.382 16.5463 0.053117 0.316946 -0.373735
2009-12-09 07:44:16 51°15.101 2°54.369 16.4517 0.053117 0.316946 -0.373735
2009-12-09 07:44:21 51°15.115 2°54.356 16.4672 0.053117 0.316946 -0.373735
2009-12-09 07:44:26 51°15.128 2°54.343 16.5494 0.053117 0.316952 -0.373735
2009-12-09 07:44:31 51°15.142 2°54.33 16.52 0.053117 0.316952 -0.373735
2009-12-09 07:44:37 51°15.158 2°54.314 16.4664 0.053117 0.316946 -0.373735
2009-12-09 07:44:41 51°15.169 2°54.303 16.5034 0.053117 0.316952 -0.373735
2009-12-09 07:44:46 51°15.182 2°54.289 16.5044 0.053014 0.316319 -0.373735
2009-12-09 07:44:51 51°15.195 2°54.276 16.5222 0.053014 0.316319 -0.373735
2009-12-09 07:44:56 51°15.209 2°54.262 16.4569 0.053117 0.316952 -0.373735
2009-12-09 07:45:01 51°15.222 2°54.248 16.538 0.053117 0.316952 -0.373735
2009-12-09 07:45:05 51°15.234 2°54.238 16.542 0.053117 0.316952 -0.373735
2009-12-09 07:45:11 51°15.25 2°54.222 16.5356 0.053117 0.316952 -0.373735
2009-12-09 07:45:16 51°15.264 2°54.209 16.484 0.053117 0.316959 -0.373735
2009-12-09 07:45:21 51°15.277 2°54.195 16.4989 0.053117 0.316959 -0.373735
2009-12-09 07:45:26 51°15.291 2°54.183 16.5028 0.053117 0.316959 -0.373735
2009-12-09 07:45:31 51°15.305 2°54.169 16.4787 0.053014 0.316326 -0.373735
2009-12-09 07:45:36 51°15.319 2°54.157 16.5315 0.053117 0.316959 -0.373735
2009-12-09 07:45:41 51°15.333 2°54.144 16.536 0.053117 0.316965 -0.373735
2009-12-09 07:45:46 51°15.346 2°54.132 16.4827 0.053117 0.316965 -0.373735
2009-12-09 07:45:51 51°15.36 2°54.119 16.497 0.053117 0.316965 -0.373735
2009-12-09 07:45:56 51°15.374 2°54.106 16.5051 0.053117 0.316965 -0.373735
2009-12-09 07:46:01 51°15.388 2°54.093 16.4919 0.053117 0.316959 -0.373735
2009-12-09 07:46:06 51°15.402 2°54.081 16.4461 0.053117 0.316965 -0.373735
2009-12-09 07:46:11 51°15.416 2°54.068 16.5118 0.053117 0.316965 -0.373735
2009-12-09 07:46:16 51°15.43 2°54.056 16.5152 0.053014 0.316332 -0.373735
2009-12-09 07:46:21 51°15.444 2°54.043 16.5246 0.053014 0.316332 -0.373735
2009-12-09 07:46:26 51°15.458 2°54.031 16.5085 0.053117 0.316971 -0.373735
2009-12-09 07:46:31 51°15.472 2°54.018 16.4773 0.053117 0.316971 -0.373735
2009-12-09 07:46:36 51°15.486 2°54.006 16.5282 0.053014 0.316338 -0.373735
2009-12-09 07:46:41 51°15.5 2°53.994 16.5288 0.053117 0.316971 -0.373735
2009-12-09 07:46:45 51°15.512 2°53.984 16.4354 0.053117 0.316971 -0.373735
2009-12-09 07:46:51 51°15.528 2°53.969 16.4973 0.053117 0.316971 -0.373735
2009-12-09 07:46:56 51°15.542 2°53.957 16.4814 0.053117 0.316978 -0.373735
2009-12-09 07:47:01 51°15.556 2°53.944 16.5049 0.053117 0.316978 -0.373735
2009-12-09 07:47:06 51°15.57 2°53.932 16.4956 0.053117 0.316984 -0.373735
2009-12-09 07:47:11 51°15.584 2°53.919 16.5122 0.053117 0.316971 -0.373735
2009-12-09 07:47:16 51°15.598 2°53.907 16.4521 0.053117 0.316984 -0.373735
2009-12-09 07:47:21 51°15.612 2°53.894 16.4656 0.053117 0.316978 -0.373735
2009-12-09 07:47:26 51°15.626 2°53.882 16.4962 0.053117 0.316978 -0.373735
2009-12-09 07:47:31 51°15.64 2°53.869 16.4801 0.053117 0.316978 -0.373735
2009-12-09 07:47:36 51°15.655 2°53.857 16.4754 0.053117 0.316984 -0.408559
2009-12-09 07:47:41 51°15.669 2°53.844 16.4619 0.053117 0.316984 -0.373735
2009-12-09 07:47:46 51°15.683 2°53.832 16.5004 0.053014 0.316357 -0.373735
2009-12-09 07:47:51 51°15.697 2°53.82 16.4981 0.053014 0.316357 -0.373735
2009-12-09 07:47:56 51°15.711 2°53.807 16.4937 0.053117 0.31699 -0.373735
2009-12-09 07:48:01 51°15.726 2°53.795 16.502 0.053117 0.31699 -0.373735
2009-12-09 07:48:05 51°15.737 2°53.784 16.4714 0.053117 0.31699 -0.373735
2009-12-09 07:48:11 51°15.754 2°53.77 16.4618 0.053117 0.316997 -0.408559
2009-12-09 07:48:16 51°15.768 2°53.757 16.4845 0.053014 0.316364 -0.373735
2009-12-09 07:48:21 51°15.783 2°53.745 16.4496 0.053014 0.316364 -0.373735
2009-12-09 07:48:26 51°15.797 2°53.732 16.5033 0.053117 0.31699 -0.373735
2009-12-09 07:48:31 51°15.811 2°53.72 16.4762 0.053014 0.316364 -0.373735
2009-12-09 07:48:36 51°15.825 2°53.708 16.436 0.053014 0.316364 -0.373735
2009-12-09 07:48:41 51°15.84 2°53.696 16.4896 0.053014 0.31637 -0.373735
2009-12-09 07:48:46 51°15.854 2°53.684 16.4492 0.053117 0.317003 -0.373735
2009-12-09 07:48:51 51°15.868 2°53.672 16.4176 0.053117 0.317003 -0.373735
2009-12-09 07:48:57 51°15.886 2°53.657 16.4525 0.053117 0.317003 -0.373735
2009-12-09 07:49:01 51°15.897 2°53.648 16.4402 0.053117 0.317009 -0.373735
2009-12-09 07:49:06 51°15.911 2°53.636 16.4897 0.053014 0.316376 -0.408559
2009-12-09 07:49:11 51°15.926 2°53.624 16.4402 0.053014 0.316376 -0.373735
2009-12-09 07:49:16 51°15.939 2°53.612 16.474 0.053117 0.317015 -0.373735
2009-12-09 07:49:21 51°15.954 2°53.599 16.4535 0.053117 0.317015 -0.408559
2009-12-09 07:49:25 51°15.965 2°53.589 16.4702 0.053117 0.317015 -0.408559
2009-12-09 07:49:31 51°15.981 2°53.574 16.4736 0.053014 0.316376 -0.408559
2009-12-09 07:49:36 51°15.995 2°53.562 16.4888 0.053117 0.317015 -0.408559
2009-12-09 07:49:41 51°16.009 2°53.55 16.4524 0.053014 0.316389 -0.373735
2009-12-09 07:49:46 51°16.023 2°53.537 16.4741 0.053014 0.316389 -0.373735
2009-12-09 07:49:51 51°16.037 2°53.525 16.4721 0.053014 0.316389 -0.373735
2009-12-09 07:49:56 51°16.051 2°53.512 16.4745 0.053014 0.316389 -0.373735
2009-12-09 07:50:01 51°16.066 2°53.5 16.4697 0.053014 0.316389 -0.373735
2009-12-09 07:50:06 51°16.08 2°53.488 16.4711 0.053014 0.316395 -0.373735
2009-12-09 07:50:11 51°16.094 2°53.475 16.4782 0.053014 0.316395 -0.408559
2009-12-09 07:50:16 51°16.107 2°53.462 16.4229 0.053014 0.316401 -0.408559
2009-12-09 07:50:21 51°16.121 2°53.45 16.4753 0.053014 0.316401 -0.408559
2009-12-09 07:50:26 51°16.135 2°53.437 16.4714 0.053014 0.316401 -0.373735
2009-12-09 07:50:31 51°16.149 2°53.424 16.4743 0.053014 0.316395 -0.373735
2009-12-09 07:50:36 51°16.163 2°53.411 16.4297 0.053014 0.316401 -0.408559
2009-12-09 07:50:41 51°16.177 2°53.399 16.4833 0.053117 0.317034 -0.373735
2009-12-09 07:50:46 51°16.191 2°53.387 16.489 0.053014 0.316408 -0.408559
2009-12-09 07:50:51 51°16.206 2°53.375 16.4654 0.053014 0.316408 -0.408559
2009-12-09 07:50:56 51°16.22 2°53.363 16.4641 0.053014 0.316408 -0.373735
2009-12-09 07:51:01 51°16.234 2°53.351 16.4704 0.053014 0.316408 -0.373735
2009-12-09 07:51:06 51°16.248 2°53.339 16.4639 0.053014 0.316414 -0.373735
2009-12-09 07:51:11 51°16.262 2°53.327 16.4903 0.053014 0.316414 -0.373735
2009-12-09 07:51:16 51°16.276 2°53.315 16.4436 0.053014 0.31642 -0.408559
2009-12-09 07:51:21 51°16.29 2°53.303 16.4858 0.053014 0.31642 -0.408559
2009-12-09 07:51:26 51°16.305 2°53.291 16.4872 0.053014 0.31642 -0.408559
2009-12-09 07:51:31 51°16.319 2°53.279 16.4608 0.053014 0.31642 -0.373735
2009-12-09 07:51:36 51°16.333 2°53.267 16.4667 0.053014 0.31642 -0.408559
2009-12-09 07:51:41 51°16.347 2°53.255 16.4815 0.053014 0.316426 -0.408559
2009-12-09 07:51:46 51°16.361 2°53.243 16.4887 0.053014 0.316426 -0.408559
2009-12-09 07:51:51 51°16.375 2°53.231 16.4404 0.053014 0.316426 -0.408559
2009-12-09 07:51:56 51°16.39 2°53.219 16.4828 0.053014 0.316433 -0.373735
2009-12-09 07:52:01 51°16.404 2°53.207 16.4883 0.053014 0.316433 -0.408559
2009-12-09 07:52:06 51°16.418 2°53.195 16.4468 0.053014 0.316433 -0.373735
2009-12-09 07:52:11 51°16.432 2°53.183 16.4385 0.053014 0.316439 -0.408559
2009-12-09 07:52:16 51°16.447 2°53.171 16.4805 0.053014 0.316439 -0.408559
2009-12-09 07:52:21 51°16.461 2°53.16 16.4411 0.053014 0.316439 -0.408559
2009-12-09 07:52:26 51°16.475 2°53.147 16.4931 0.053014 0.316439 -0.408559
2009-12-09 07:52:31 51°16.49 2°53.135 16.4677 0.053014 0.316445 -0.408559
2009-12-09 07:52:36 51°16.504 2°53.123 16.4937 0.053014 0.316445 -0.408559
2009-12-09 07:52:41 51°16.518 2°53.111 16.4787 0.053014 0.316452 -0.408559
2009-12-09 07:52:46 51°16.532 2°53.099 16.425 0.053014 0.316452 -0.408559
2009-12-09 07:52:51 51°16.546 2°53.088 16.4879 0.053014 0.316452 -0.408559
2009-12-09 07:52:56 51°16.561 2°53.076 16.4646 0.053014 0.316452 -0.408559
2009-12-09 07:53:01 51°16.575 2°53.064 16.4869 0.053014 0.316452 -0.408559
2009-12-09 07:53:06 51°16.589 2°53.052 16.4894 0.053014 0.316458 -0.408559
2009-12-09 07:53:11 51°16.603 2°53.04 16.4848 0.053014 0.316458 -0.408559
2009-12-09 07:53:16 51°16.617 2°53.029 16.4626 0.053014 0.316464 -0.373735
2009-12-09 07:53:21 51°16.632 2°53.017 16.4642 0.053014 0.316464 -0.373735
2009-12-09 07:53:26 51°16.646 2°53.005 16.4714 0.053014 0.316464 -0.373735
2009-12-09 07:53:31 51°16.66 2°52.993 16.494 0.053014 0.316464 -0.408559
2009-12-09 07:53:36 51°16.674 2°52.981 16.4676 0.053014 0.316471 -0.373735
2009-12-09 07:53:41 51°16.689 2°52.97 16.4966 0.053014 0.316471 -0.408559
2009-12-09 07:53:46 51°16.703 2°52.958 16.4928 0.053014 0.316477 -0.408559
2009-12-09 07:53:51 51°16.717 2°52.945 16.4483 0.053014 0.316477 -0.408559
2009-12-09 07:53:56 51°16.732 2°52.933 16.4491 0.053014 0.316477 -0.408559
2009-12-09 07:54:01 51°16.746 2°52.922 16.4959 0.053014 0.316483 -0.408559
2009-12-09 07:54:06 51°16.76 2°52.909 16.4849 0.053014 0.316483 -0.408559
2009-12-09 07:54:11 51°16.774 2°52.898 16.5034 0.053014 0.316483 -0.373735
2009-12-09 07:54:16 51°16.788 2°52.885 16.4496 0.053014 0.316489 -0.373735
2009-12-09 07:54:21 51°16.803 2°52.873 16.4874 0.053014 0.316489 -0.373735
2009-12-09 07:54:26 51°16.817 2°52.861 16.4582 0.053014 0.316496 -0.408559
2009-12-09 07:54:31 51°16.831 2°52.849 16.4954 0.053014 0.316496 -0.408559
2009-12-09 07:54:36 51°16.845 2°52.836 16.469 0.053014 0.316496 -0.408559
2009-12-09 07:54:41 51°16.859 2°52.824 16.5014 0.053014 0.316496 -0.373735
2009-12-09 07:54:46 51°16.873 2°52.812 16.4619 0.053014 0.316502 -0.408559
2009-12-09 07:54:51 51°16.887 2°52.8 16.4802 0.053014 0.316502 -0.408559
2009-12-09 07:54:56 51°16.901 2°52.788 16.4809 0.053014 0.316508 -0.408559
2009-12-09 07:55:01 51°16.915 2°52.775 16.4973 0.053014 0.316502 -0.408559
2009-12-09 07:55:06 51°16.93 2°52.763 16.4718 0.053014 0.316508 -0.408559
2009-12-09 07:55:11 51°16.944 2°52.751 16.5009 0.053014 0.316515 -0.373735
2009-12-09 07:55:16 51°16.958 2°52.739 16.4941 0.053014 0.316508 -0.408559
2009-12-09 07:55:21 51°16.973 2°52.727 16.4718 0.053014 0.316508 -0.408559
2009-12-09 07:55:26 51°16.987 2°52.715 16.4979 0.053014 0.316515 -0.408559
2009-12-09 07:55:31 51°17.001 2°52.703 16.4778 0.053014 0.316521 -0.408559
2009-12-09 07:55:36 51°17.015 2°52.69 16.4974 0.053014 0.316521 -0.408559
2009-12-09 07:55:41 51°17.03 2°52.678 16.498 0.053014 0.316521 -0.408559
2009-12-09 07:55:46 51°17.044 2°52.665 16.5034 0.053014 0.316521 -0.408559
2009-12-09 07:55:51 51°17.058 2°52.653 16.4664 0.053014 0.316521 -0.408559
2009-12-09 07:55:56 51°17.072 2°52.641 16.491 0.053014 0.316527 -0.408559
2009-12-09 07:56:01 51°17.087 2°52.629 16.4983 0.053014 0.316534 -0.408559
2009-12-09 07:56:06 51°17.101 2°52.616 16.5147 0.053014 0.316534 -0.408559
2009-12-09 07:56:11 51°17.115 2°52.603 16.4545 0.053014 0.31654 -0.408559
2009-12-09 07:56:16 51°17.129 2°52.591 16.4964 0.053014 0.31654 -0.408559
2009-12-09 07:56:21 51°17.143 2°52.578 16.4628 0.053014 0.31654 -0.408559
2009-12-09 07:56:26 51°17.157 2°52.566 16.502 0.053014 0.31654 -0.408559
2009-12-09 07:56:31 51°17.172 2°52.553 16.5 0.053014 0.316546 -0.408559
2009-12-09 07:56:36 51°17.186 2°52.541 16.5007 0.053014 0.316546 -0.408559
2009-12-09 07:56:41 51°17.2 2°52.528 16.5051 0.053014 0.316546 -0.408559
2009-12-09 07:56:46 51°17.214 2°52.516 16.5015 0.053014 0.316552 -0.408559
2009-12-09 07:56:51 51°17.228 2°52.503 16.5125 0.053014 0.316552 -0.408559
2009-12-09 07:56:56 51°17.242 2°52.491 16.5184 0.053014 0.316552 -0.408559
2009-12-09 07:57:01 51°17.257 2°52.478 16.4868 0.053014 0.316559 -0.408559
2009-12-09 07:57:06 51°17.271 2°52.466 16.5017 0.053014 0.316559 -0.408559
2009-12-09 07:57:11 51°17.285 2°52.453 16.5088 0.053014 0.316565 -0.408559
2009-12-09 07:57:16 51°17.299 2°52.44 16.5001 0.053014 0.316565 -0.408559
2009-12-09 07:57:21 51°17.314 2°52.428 16.4998 0.053014 0.316565 -0.408559
2009-12-09 07:57:26 51°17.328 2°52.415 16.5106 0.053014 0.316565 -0.408559
2009-12-09 07:57:31 51°17.342 2°52.403 16.4882 0.053014 0.316571 -0.408559
2009-12-09 07:57:36 51°17.356 2°52.391 16.5075 0.053014 0.316571 -0.408559
2009-12-09 07:57:41 51°17.371 2°52.378 16.4965 0.053014 0.316578 -0.408559
2009-12-09 07:57:46 51°17.385 2°52.366 16.5139 0.053014 0.316578 -0.408559
2009-12-09 07:57:51 51°17.399 2°52.353 16.5148 0.053014 0.316578 -0.408559
2009-12-09 07:57:56 51°17.413 2°52.341 16.5022 0.053014 0.316584 -0.408559
2009-12-09 07:58:01 51°17.427 2°52.328 16.5114 0.053014 0.316584 -0.408559
2009-12-09 07:58:06 51°17.442 2°52.316 16.5091 0.053014 0.316584 -0.408559
2009-12-09 07:58:11 51°17.456 2°52.304 16.4993 0.053014 0.31659 -0.408559
2009-12-09 07:58:16 51°17.47 2°52.291 16.4977 0.053014 0.31659 -0.408559
2009-12-09 07:58:21 51°17.485 2°52.278 16.4944 0.053014 0.31659 -0.408559
2009-12-09 07:58:26 51°17.499 2°52.266 16.5073 0.053014 0.316597 -0.443383
2009-12-09 07:58:31 51°17.513 2°52.253 16.5148 0.053014 0.316597 -0.408559
2009-12-09 07:58:36 51°17.527 2°52.241 16.5039 0.053014 0.316603 -0.443383
2009-12-09 07:58:41 51°17.542 2°52.228 16.503 0.053014 0.316603 -0.443383
2009-12-09 07:58:46 51°17.556 2°52.215 16.489 0.053014 0.316603 -0.408559
2009-12-09 07:58:51 51°17.57 2°52.202 16.511 0.053014 0.316603 -0.408559
2009-12-09 07:58:56 51°17.585 2°52.19 16.497 0.053014 0.316609 -0.408559
2009-12-09 07:59:01 51°17.598 2°52.177 16.5152 0.053014 0.316609 -0.408559
2009-12-09 07:59:06 51°17.613 2°52.164 16.4982 0.053014 0.316609 -0.408559
2009-12-09 07:59:11 51°17.627 2°52.152 16.5215 0.053014 0.316615 -0.408559
2009-12-09 07:59:16 51°17.642 2°52.139 16.515 0.053014 0.316622 -0.408559
2009-12-09 07:59:21 51°17.656 2°52.127 16.5015 0.053014 0.316622 -0.408559
2009-12-09 07:59:26 51°17.67 2°52.114 16.5114 0.053014 0.316622 -0.408559
2009-12-09 07:59:31 51°17.684 2°52.101 16.4808 0.053014 0.316622 -0.408559
2009-12-09 07:59:36 51°17.699 2°52.089 16.4968 0.053014 0.316628 -0.443383
2009-12-09 07:59:41 51°17.713 2°52.076 16.4957 0.053014 0.316628 -0.408559
2009-12-09 07:59:46 51°17.727 2°52.063 16.4905 0.053014 0.316628 -0.443383
2009-12-09 07:59:51 51°17.741 2°52.051 16.511 0.053014 0.316628 -0.443383
2009-12-09 07:59:56 51°17.755 2°52.038 16.515 0.053014 0.316634 -0.408559
2009-12-09 08:00:01 51°17.769 2°52.026 16.5221 0.053014 0.316634 -0.443383
2009-12-09 08:00:06 51°17.784 2°52.013 16.5241 0.053014 0.316641 -0.443383
2009-12-09 08:00:11 51°17.798 2°52 16.5083 0.053014 0.316641 -0.408559
2009-12-09 08:00:16 51°17.812 2°51.988 16.5262 0.053014 0.316641 -0.443383
2009-12-09 08:00:21 51°17.826 2°51.975 16.5187 0.053014 0.316641 -0.443383
2009-12-09 08:00:26 51°17.841 2°51.963 16.5194 0.053014 0.316641 -0.443383
2009-12-09 08:00:31 51°17.855 2°51.95 16.5119 0.053014 0.31666 -0.443383
2009-12-09 08:00:36 51°17.869 2°51.937 16.5133 0.053014 0.316653 -0.443383
2009-12-09 08:00:41 51°17.883 2°51.924 16.4811 0.053014 0.316653 -0.443383
2009-12-09 08:00:46 51°17.897 2°51.912 16.5035 0.053014 0.316666 -0.443383
2009-12-09 08:00:51 51°17.911 2°51.9 16.4982 0.053014 0.316666 -0.443383
2009-12-09 08:00:56 51°17.925 2°51.887 16.5327 0.053014 0.31666 -0.443383
2009-12-09 08:01:01 51°17.94 2°51.875 16.5151 0.053014 0.316672 -0.443383
2009-12-09 08:01:06 51°17.954 2°51.862 16.4921 0.053014 0.316666 -0.443383
2009-12-09 08:01:11 51°17.968 2°51.849 16.5248 0.053014 0.316666 -0.443383
2009-12-09 08:01:16 51°17.982 2°51.837 16.4914 0.053014 0.316666 -0.443383
2009-12-09 08:01:21 51°17.997 2°51.825 16.532 0.053014 0.316666 -0.443383
2009-12-09 08:01:26 51°18.011 2°51.812 16.4978 0.053014 0.316672 -0.443383
2009-12-09 08:01:31 51°18.025 2°51.799 16.52 0.053014 0.316672 -0.443383
2009-12-09 08:01:36 51°18.039 2°51.787 16.5082 0.053014 0.316679 -0.443383
2009-12-09 08:01:41 51°18.053 2°51.774 16.5323 0.053014 0.316672 -0.443383
2009-12-09 08:01:46 51°18.068 2°51.762 16.519 0.053014 0.316685 -0.443383
2009-12-09 08:01:51 51°18.082 2°51.749 16.5045 0.053014 0.316685 -0.443383
2009-12-09 08:01:56 51°18.096 2°51.737 16.5114 0.053014 0.316679 -0.443383
2009-12-09 08:02:01 51°18.11 2°51.726 16.5098 0.053014 0.316691 -0.443383
2009-12-09 08:02:06 51°18.124 2°51.713 16.5213 0.053014 0.316691 -0.443383
2009-12-09 08:02:11 51°18.139 2°51.701 16.5158 0.053014 0.316697 -0.443383
2009-12-09 08:02:16 51°18.153 2°51.688 16.5269 0.053014 0.316685 -0.443383
2009-12-09 08:02:21 51°18.167 2°51.676 16.5062 0.053014 0.316685 -0.443383
2009-12-09 08:02:26 51°18.181 2°51.663 16.5045 0.053014 0.316704 -0.443383
2009-12-09 08:02:31 51°18.196 2°51.651 16.5456 0.053014 0.316697 -0.443383
2009-12-09 08:02:36 51°18.21 2°51.639 16.5171 0.053014 0.31671 -0.443383
2009-12-09 08:02:41 51°18.224 2°51.626 16.5303 0.053014 0.316704 -0.443383
2009-12-09 08:02:46 51°18.238 2°51.614 16.5231 0.053014 0.31671 -0.443383
2009-12-09 08:02:51 51°18.253 2°51.601 16.531 0.053014 0.31671 -0.443383
2009-12-09 08:02:56 51°18.267 2°51.588 16.534 0.053014 0.31671 -0.443383
2009-12-09 08:03:01 51°18.281 2°51.576 16.5082 0.053014 0.31671 -0.443383
2009-12-09 08:03:06 51°18.295 2°51.564 16.5256 0.053014 0.316716 -0.443383
2009-12-09 08:03:11 51°18.31 2°51.551 16.5263 0.053014 0.316716 -0.443383
2009-12-09 08:03:16 51°18.324 2°51.539 16.5291 0.053014 0.316716 -0.443383
2009-12-09 08:03:21 51°18.338 2°51.526 16.5327 0.053014 0.316716 -0.443383
2009-12-09 08:03:26 51°18.353 2°51.513 16.5341 0.053014 0.316716 -0.443383
2009-12-09 08:03:31 51°18.367 2°51.501 16.5398 0.053014 0.316723 -0.443383
2009-12-09 08:03:36 51°18.381 2°51.489 16.5379 0.053014 0.316729 -0.443383
2009-12-09 08:03:41 51°18.396 2°51.476 16.5179 0.053014 0.316729 -0.443383
2009-12-09 08:03:46 51°18.41 2°51.464 16.5447 0.053014 0.316735 -0.443383
2009-12-09 08:03:51 51°18.424 2°51.451 16.515 0.053014 0.316735 -0.443383
2009-12-09 08:03:56 51°18.438 2°51.439 16.5406 0.053014 0.316735 -0.443383
2009-12-09 08:04:01 51°18.452 2°51.427 16.5144 0.053014 0.316742 -0.478207
2009-12-09 08:04:06 51°18.466 2°51.414 16.5491 0.053014 0.316742 -0.443383
2009-12-09 08:04:11 51°18.48 2°51.402 16.5208 0.053014 0.316742 -0.443383
2009-12-09 08:04:16 51°18.494 2°51.389 16.5283 0.053014 0.316748 -0.478207
2009-12-09 08:04:21 51°18.508 2°51.377 16.5401 0.053014 0.316748 -0.478207
2009-12-09 08:04:26 51°18.522 2°51.364 16.5402 0.053014 0.316742 -0.478207
2009-12-09 08:04:31 51°18.537 2°51.352 16.5238 0.053014 0.316754 -0.443383
2009-12-09 08:04:36 51°18.551 2°51.339 16.5481 0.053014 0.316748 -0.443383
2009-12-09 08:04:41 51°18.565 2°51.327 16.5239 0.053014 0.316748 -0.478207
2009-12-09 08:04:46 51°18.579 2°51.314 16.5058 0.053014 0.316761 -0.443383
2009-12-09 08:04:51 51°18.593 2°51.301 16.5428 0.053014 0.316761 -0.443383
2009-12-09 08:04:56 51°18.608 2°51.289 16.5232 0.053014 0.316761 -0.443383
2009-12-09 08:05:01 51°18.622 2°51.276 16.5521 0.053014 0.316761 -0.478207
2009-12-09 08:05:06 51°18.636 2°51.264 16.5397 0.053014 0.316773 -0.478207
2009-12-09 08:05:11 51°18.65 2°51.25 16.5486 0.053014 0.316761 -0.478207
2009-12-09 08:05:16 51°18.665 2°51.239 16.5301 0.053014 0.31678 -0.443383
2009-12-09 08:05:21 51°18.679 2°51.225 16.5291 0.053014 0.316773 -0.478207
2009-12-09 08:05:26 51°18.693 2°51.213 16.5309 0.053014 0.316773 -0.478207
2009-12-09 08:05:31 51°18.707 2°51.2 16.536 0.053014 0.31678 -0.478207
2009-12-09 08:05:36 51°18.721 2°51.186 16.5502 0.053014 0.31678 -0.478207
2009-12-09 08:05:41 51°18.736 2°51.174 16.544 0.053014 0.31678 -0.478207
2009-12-09 08:05:46 51°18.75 2°51.161 16.5238 0.053014 0.31678 -0.478207
2009-12-09 08:05:51 51°18.764 2°51.149 16.553 0.053014 0.31678 -0.478207
2009-12-09 08:05:56 51°18.779 2°51.136 16.543 0.053014 0.316786 -0.443383
2009-12-09 08:06:01 51°18.792 2°51.123 16.5518 0.053014 0.316786 -0.478207
2009-12-09 08:06:06 51°18.807 2°51.111 16.5419 0.053014 0.316792 -0.478207
2009-12-09 08:06:11 51°18.821 2°51.098 16.5486 0.053014 0.316792 -0.478207
2009-12-09 08:06:16 51°18.835 2°51.086 16.5546 0.053014 0.316798 -0.478207
2009-12-09 08:06:21 51°18.85 2°51.073 16.5422 0.053014 0.316798 -0.478207
2009-12-09 08:06:26 51°18.864 2°51.06 16.5411 0.053014 0.316798 -0.478207
2009-12-09 08:06:31 51°18.878 2°51.048 16.5627 0.053014 0.316805 -0.478207
2009-12-09 08:06:36 51°18.892 2°51.035 16.559 0.053014 0.316811 -0.478207
2009-12-09 08:06:41 51°18.906 2°51.021 16.552 0.053014 0.316805 -0.478207
2009-12-09 08:06:46 51°18.921 2°51.009 16.5606 0.053014 0.316811 -0.478207
2009-12-09 08:06:51 51°18.935 2°50.996 16.5656 0.053014 0.316811 -0.478207
2009-12-09 08:06:56 51°18.949 2°50.983 16.563 0.053014 0.316817 -0.478207
2009-12-09 08:07:01 51°18.963 2°50.97 16.5533 0.053014 0.316824 -0.478207
2009-12-09 08:07:06 51°18.977 2°50.957 16.5649 0.053014 0.316824 -0.478207
2009-12-09 08:07:11 51°18.991 2°50.945 16.5529 0.053014 0.316824 -0.478207
2009-12-09 08:07:16 51°19.006 2°50.932 16.5615 0.053014 0.316836 -0.478207
2009-12-09 08:07:21 51°19.02 2°50.919 16.5561 0.053014 0.316836 -0.478207
2009-12-09 08:07:26 51°19.034 2°50.906 16.5676 0.053014 0.31683 -0.478207
2009-12-09 08:07:31 51°19.048 2°50.894 16.5549 0.053014 0.316843 -0.478207
2009-12-09 08:07:36 51°19.062 2°50.881 16.5705 0.053014 0.316836 -0.478207
2009-12-09 08:07:41 51°19.077 2°50.868 16.577 0.053014 0.316843 -0.478207
2009-12-09 08:07:46 51°19.091 2°50.856 16.5454 0.053014 0.316849 -0.478207
2009-12-09 08:07:51 51°19.105 2°50.843 16.5667 0.053014 0.316849 -0.478207
2009-12-09 08:07:56 51°19.12 2°50.83 16.5757 0.053014 0.316849 -0.478207
2009-12-09 08:08:01 51°19.134 2°50.818 16.5546 0.053014 0.316849 -0.478207
2009-12-09 08:08:06 51°19.148 2°50.805 16.5654 0.053014 0.316855 -0.478207
2009-12-09 08:08:11 51°19.162 2°50.793 16.5703 0.053014 0.316862 -0.443383
2009-12-09 08:08:16 51°19.177 2°50.78 16.5615 0.053014 0.316862 -0.478207
2009-12-09 08:08:21 51°19.191 2°50.767 16.5814 0.053014 0.316862 -0.478207
2009-12-09 08:08:26 51°19.205 2°50.755 16.5751 0.053014 0.316862 -0.478207
2009-12-09 08:08:31 51°19.219 2°50.742 16.5693 0.053014 0.316874 -0.478207
2009-12-09 08:08:36 51°19.233 2°50.73 16.5834 0.053014 0.316868 -0.478207
2009-12-09 08:08:41 51°19.248 2°50.717 16.5782 0.053014 0.316874 -0.478207
2009-12-09 08:08:46 51°19.261 2°50.704 16.5657 0.053014 0.316881 -0.443383
2009-12-09 08:08:51 51°19.275 2°50.691 16.562 0.053014 0.316874 -0.478207
2009-12-09 08:08:56 51°19.29 2°50.678 16.5795 0.053014 0.316874 -0.478207
2009-12-09 08:09:01 51°19.304 2°50.665 16.578 0.053014 0.316887 -0.478207
2009-12-09 08:09:06 51°19.318 2°50.652 16.5936 0.053014 0.316881 -0.478207
2009-12-09 08:09:11 51°19.332 2°50.64 16.556 0.053014 0.316893 -0.478207
2009-12-09 08:09:16 51°19.346 2°50.627 16.5951 0.053014 0.316893 -0.478207
2009-12-09 08:09:21 51°19.36 2°50.614 16.5727 0.053014 0.316893 -0.478207
2009-12-09 08:09:26 51°19.374 2°50.602 16.5867 0.053014 0.3169 -0.478207
2009-12-09 08:09:31 51°19.388 2°50.589 16.5837 0.053014 0.3169 -0.478207
2009-12-09 08:09:36 51°19.402 2°50.576 16.5822 0.052911 0.316265 -0.478207
2009-12-09 08:09:41 51°19.416 2°50.563 16.5871 0.053014 0.316906 -0.478207
2009-12-09 08:09:46 51°19.431 2°50.551 16.5816 0.053014 0.316906 -0.478207
2009-12-09 08:09:51 51°19.445 2°50.538 16.5975 0.053014 0.316906 -0.478207
2009-12-09 08:09:56 51°19.459 2°50.525 16.5872 0.053014 0.316912 -0.478207
2009-12-09 08:10:01 51°19.473 2°50.511 16.6009 0.053014 0.316912 -0.478207
2009-12-09 08:10:06 51°19.487 2°50.499 16.5717 0.053014 0.316918 -0.478207
2009-12-09 08:10:11 51°19.501 2°50.486 16.5856 0.052911 0.316284 -0.478207
2009-12-09 08:10:16 51°19.515 2°50.472 16.6074 0.053014 0.316925 -0.478207
2009-12-09 08:10:21 51°19.529 2°50.46 16.5849 0.053014 0.316925 -0.478207
2009-12-09 08:10:26 51°19.543 2°50.447 16.5735 0.052911 0.316297 -0.478207
2009-12-09 08:10:31 51°19.557 2°50.434 16.6109 0.053014 0.316925 -0.478207
2009-12-09 08:10:36 51°19.571 2°50.421 16.5976 0.053014 0.316937 -0.478207
2009-12-09 08:10:41 51°19.585 2°50.409 16.6091 0.052911 0.316303 -0.478207
2009-12-09 08:10:46 51°19.599 2°50.396 16.5955 0.052911 0.316303 -0.478207
2009-12-09 08:10:51 51°19.613 2°50.383 16.6034 0.052911 0.31631 -0.478207
2009-12-09 08:10:56 51°19.627 2°50.37 16.6002 0.052911 0.31631 -0.478207
2009-12-09 08:11:01 51°19.641 2°50.357 16.5912 0.053014 0.31695 -0.443383
2009-12-09 08:11:06 51°19.655 2°50.343 16.5891 0.052911 0.31631 -0.478207
2009-12-09 08:11:11 51°19.669 2°50.33 16.5872 0.052911 0.316316 -0.478207
2009-12-09 08:11:16 51°19.683 2°50.317 16.5999 0.052911 0.316316 -0.478207
2009-12-09 08:11:21 51°19.697 2°50.304 16.6078 0.052911 0.316316 -0.478207
2009-12-09 08:11:26 51°19.711 2°50.291 16.6157 0.052911 0.316316 -0.478207
2009-12-09 08:11:31 51°19.725 2°50.278 16.5936 0.052911 0.316329 -0.478207
2009-12-09 08:11:36 51°19.739 2°50.265 16.6171 0.052911 0.316329 -0.478207
2009-12-09 08:11:41 51°19.753 2°50.252 16.6108 0.052911 0.316341 -0.478207
2009-12-09 08:11:46 51°19.767 2°50.239 16.6035 0.052911 0.316335 -0.478207
2009-12-09 08:11:51 51°19.781 2°50.226 16.6107 0.052911 0.316335 -0.478207
2009-12-09 08:11:56 51°19.795 2°50.213 16.5888 0.052911 0.316341 -0.478207
2009-12-09 08:12:01 51°19.809 2°50.2 16.6097 0.052911 0.316341 -0.478207
2009-12-09 08:12:06 51°19.824 2°50.187 16.6121 0.052911 0.316341 -0.478207
2009-12-09 08:12:11 51°19.838 2°50.174 16.6229 0.052911 0.316347 -0.478207
2009-12-09 08:12:16 51°19.852 2°50.162 16.6178 0.052911 0.316354 -0.478207
2009-12-09 08:12:21 51°19.866 2°50.149 16.6209 0.052911 0.316354 -0.478207
2009-12-09 08:12:26 51°19.88 2°50.136 16.6242 0.052911 0.316354 -0.478207
2009-12-09 08:12:31 51°19.894 2°50.123 16.6204 0.052911 0.31636 -0.478207
2009-12-09 08:12:36 51°19.908 2°50.111 16.624 0.052911 0.31636 -0.478207
2009-12-09 08:12:41 51°19.923 2°50.098 16.6155 0.052911 0.316366 -0.478207
2009-12-09 08:12:46 51°19.937 2°50.085 16.6235 0.052911 0.316366 -0.478207
2009-12-09 08:12:51 51°19.951 2°50.073 16.6195 0.052911 0.316366 -0.478207
2009-12-09 08:12:56 51°19.966 2°50.061 16.6226 0.052911 0.316373 -0.478207
2009-12-09 08:13:01 51°19.98 2°50.048 16.6296 0.052911 0.316373 -0.478207
2009-12-09 08:13:06 51°19.994 2°50.035 16.6351 0.052911 0.316379 -0.478207
2009-12-09 08:13:11 51°20.008 2°50.023 16.6367 0.052911 0.316379 -0.478207
2009-12-09 08:13:16 51°20.022 2°50.01 16.6237 0.052911 0.316379 -0.478207
2009-12-09 08:13:21 51°20.037 2°49.998 16.6223 0.052911 0.316379 -0.478207
2009-12-09 08:13:26 51°20.051 2°49.986 16.6372 0.052911 0.316385 -0.478207
2009-12-09 08:13:31 51°20.065 2°49.973 16.6465 0.052911 0.316385 -0.478207
2009-12-09 08:13:36 51°20.08 2°49.961 16.6313 0.052911 0.316398 -0.478207
2009-12-09 08:13:41 51°20.094 2°49.948 16.6317 0.052911 0.316392 -0.478207
2009-12-09 08:13:46 51°20.108 2°49.937 16.634 0.052911 0.316398 -0.478207
2009-12-09 08:13:51 51°20.122 2°49.924 16.6309 0.052911 0.316398 -0.478207
2009-12-09 08:13:56 51°20.137 2°49.912 16.6403 0.052911 0.316398 -0.478207
2009-12-09 08:14:01 51°20.151 2°49.899 16.6403 0.052911 0.316404 -0.478207
2009-12-09 08:14:06 51°20.165 2°49.887 16.6342 0.052911 0.316411 -0.478207
2009-12-09 08:14:11 51°20.18 2°49.875 16.6313 0.052911 0.316411 -0.478207
2009-12-09 08:14:16 51°20.194 2°49.863 16.6311 0.052911 0.316417 -0.478207
2009-12-09 08:14:21 51°20.208 2°49.85 16.6464 0.052911 0.316423 -0.478207
2009-12-09 08:14:26 51°20.223 2°49.838 16.6181 0.052911 0.316423 -0.478207
2009-12-09 08:14:31 51°20.237 2°49.826 16.6067 0.052911 0.316423 -0.478207
2009-12-09 08:14:36 51°20.251 2°49.814 16.6381 0.052911 0.316429 -0.478207
2009-12-09 08:14:41 51°20.266 2°49.802 16.6393 0.052911 0.316429 -0.478207
2009-12-09 08:14:46 51°20.28 2°49.789 16.6441 0.052911 0.316429 -0.478207
2009-12-09 08:14:51 51°20.295 2°49.777 16.6439 0.052911 0.316429 -0.478207
2009-12-09 08:14:56 51°20.309 2°49.765 16.634 0.052911 0.316436 -0.478207
2009-12-09 08:15:01 51°20.323 2°49.752 16.6483 0.052911 0.316429 -0.478207
2009-12-09 08:15:06 51°20.338 2°49.74 16.6623 0.052911 0.316448 -0.478207
2009-12-09 08:15:11 51°20.351 2°49.727 16.631 0.052911 0.316442 -0.478207
2009-12-09 08:15:16 51°20.365 2°49.713 16.6591 0.052911 0.316455 -0.478207
2009-12-09 08:15:21 51°20.379 2°49.7 16.6438 0.052911 0.316455 -0.478207
2009-12-09 08:15:26 51°20.392 2°49.685 16.6471 0.052911 0.316448 -0.478207
2009-12-09 08:15:31 51°20.406 2°49.671 16.6228 0.052911 0.316455 -0.478207
2009-12-09 08:15:36 51°20.419 2°49.656 16.6489 0.052911 0.316461 -0.478207
2009-12-09 08:15:41 51°20.432 2°49.641 16.658 0.052911 0.316461 -0.478207
2009-12-09 08:15:46 51°20.445 2°49.626 16.6316 0.052911 0.316461 -0.478207
2009-12-09 08:15:51 51°20.459 2°49.612 16.644 0.052911 0.316461 -0.478207
2009-12-09 08:15:56 51°20.472 2°49.597 16.6407 0.052911 0.316474 -0.478207
2009-12-09 08:16:01 51°20.485 2°49.582 16.6443 0.052911 0.316467 -0.443383
2009-12-09 08:16:06 51°20.498 2°49.568 16.6544 0.052911 0.316474 -0.478207
2009-12-09 08:16:11 51°20.511 2°49.553 16.6601 0.052911 0.316474 -0.478207
2009-12-09 08:16:16 51°20.524 2°49.538 16.6418 0.052911 0.31648 -0.478207
2009-12-09 08:16:21 51°20.537 2°49.522 16.6489 0.052911 0.31648 -0.478207
2009-12-09 08:16:26 51°20.55 2°49.508 16.6429 0.052911 0.31648 -0.478207
2009-12-09 08:16:31 51°20.563 2°49.492 16.6572 0.052911 0.31648 -0.443383
2009-12-09 08:16:36 51°20.576 2°49.478 16.6631 0.052911 0.316486 -0.478207
2009-12-09 08:16:41 51°20.589 2°49.462 16.6541 0.052911 0.316486 -0.478207
2009-12-09 08:16:46 51°20.602 2°49.448 16.6633 0.052911 0.316493 -0.478207
2009-12-09 08:16:51 51°20.615 2°49.433 16.6571 0.052911 0.316493 -0.478207
2009-12-09 08:16:56 51°20.628 2°49.418 16.6451 0.052911 0.316499 -0.443383
2009-12-09 08:17:01 51°20.641 2°49.403 16.6588 0.052911 0.316505 -0.478207
2009-12-09 08:17:06 51°20.654 2°49.388 16.6779 0.052911 0.316505 -0.478207
2009-12-09 08:17:11 51°20.667 2°49.374 16.6526 0.052911 0.316512 -0.478207
2009-12-09 08:17:16 51°20.68 2°49.359 16.6783 0.052911 0.316518 -0.478207
2009-12-09 08:17:21 51°20.693 2°49.344 16.6559 0.052911 0.316518 -0.478207
2009-12-09 08:17:26 51°20.706 2°49.329 16.6629 0.052911 0.316518 -0.478207
2009-12-09 08:17:31 51°20.719 2°49.314 16.6563 0.052911 0.316518 -0.478207
2009-12-09 08:17:36 51°20.732 2°49.299 16.6446 0.052911 0.316518 -0.478207
2009-12-09 08:17:41 51°20.745 2°49.284 16.6532 0.052911 0.316524 -0.478207
2009-12-09 08:17:46 51°20.758 2°49.269 16.6761 0.052911 0.316531 -0.478207
2009-12-09 08:17:51 51°20.771 2°49.254 16.6687 0.052911 0.316531 -0.478207
2009-12-09 08:17:56 51°20.784 2°49.239 16.6716 0.052911 0.316524 -0.478207
2009-12-09 08:18:01 51°20.797 2°49.225 16.6548 0.052911 0.316531 -0.478207
2009-12-09 08:18:06 51°20.81 2°49.209 16.6806 0.052911 0.316537 -0.478207
2009-12-09 08:18:11 51°20.823 2°49.194 16.6906 0.052911 0.316543 -0.478207
2009-12-09 08:18:16 51°20.835 2°49.179 16.6832 0.052911 0.316537 -0.478207
2009-12-09 08:18:21 51°20.848 2°49.164 16.6505 0.052911 0.316537 -0.478207
2009-12-09 08:18:26 51°20.861 2°49.149 16.6587 0.052911 0.316549 -0.443383
2009-12-09 08:18:31 51°20.874 2°49.134 16.6729 0.052911 0.316556 -0.478207
2009-12-09 08:18:36 51°20.887 2°49.119 16.685 0.052911 0.316556 -0.443383
2009-12-09 08:18:41 51°20.9 2°49.104 16.6672 0.052911 0.316549 -0.478207
2009-12-09 08:18:46 51°20.913 2°49.09 16.6891 0.052911 0.316562 -0.478207
2009-12-09 08:18:51 51°20.926 2°49.074 16.6877 0.052911 0.316562 -0.478207
2009-12-09 08:18:56 51°20.939 2°49.06 16.6657 0.052911 0.316562 -0.443383
2009-12-09 08:19:01 51°20.952 2°49.045 16.6736 0.052911 0.316575 -0.443383
2009-12-09 08:19:06 51°20.964 2°49.029 16.69 0.052911 0.316568 -0.478207
2009-12-09 08:19:11 51°20.977 2°49.014 16.6784 0.052911 0.316581 -0.478207
2009-12-09 08:19:16 51°20.99 2°48.999 16.6649 0.052911 0.316581 -0.478207
2009-12-09 08:19:21 51°21.002 2°48.984 16.6972 0.052911 0.316581 -0.478207
2009-12-09 08:19:26 51°21.015 2°48.968 16.6646 0.052911 0.316581 -0.478207
2009-12-09 08:19:31 51°21.028 2°48.953 16.6862 0.052911 0.316581 -0.478207
2009-12-09 08:19:36 51°21.041 2°48.938 16.6902 0.052911 0.316581 -0.478207
2009-12-09 08:19:41 51°21.054 2°48.923 16.6869 0.052911 0.316594 -0.478207
2009-12-09 08:19:46 51°21.066 2°48.907 16.6983 0.052911 0.316594 -0.443383
2009-12-09 08:19:51 51°21.079 2°48.893 16.6694 0.052911 0.316594 -0.443383
2009-12-09 08:19:56 51°21.092 2°48.878 16.7049 0.052911 0.316594 -0.478207
2009-12-09 08:20:01 51°21.105 2°48.863 16.6863 0.052911 0.316606 -0.478207
2009-12-09 08:20:06 51°21.117 2°48.848 16.6946 0.052911 0.3166 -0.443383
2009-12-09 08:20:11 51°21.131 2°48.834 16.6955 0.052911 0.316613 -0.478207
2009-12-09 08:20:16 51°21.144 2°48.819 16.7018 0.052911 0.316606 -0.478207
2009-12-09 08:20:21 51°21.157 2°48.804 16.7033 0.052911 0.316606 -0.478207
2009-12-09 08:20:26 51°21.17 2°48.789 16.6884 0.052911 0.316619 -0.443383
2009-12-09 08:20:31 51°21.183 2°48.774 16.7045 0.052911 0.316613 -0.443383
2009-12-09 08:20:36 51°21.196 2°48.759 16.6983 0.052911 0.316625 -0.478207
2009-12-09 08:20:41 51°21.209 2°48.744 16.7214 0.052911 0.316625 -0.478207
2009-12-09 08:20:46 51°21.222 2°48.73 16.7106 0.052911 0.316632 -0.443383
2009-12-09 08:20:51 51°21.235 2°48.714 16.6873 0.052911 0.316632 -0.443383
2009-12-09 08:20:56 51°21.248 2°48.7 16.72 0.052911 0.316625 -0.443383
2009-12-09 08:21:01 51°21.261 2°48.685 16.7018 0.052911 0.316638 -0.478207
2009-12-09 08:21:06 51°21.274 2°48.67 16.7201 0.052911 0.316632 -0.478207
2009-12-09 08:21:11 51°21.287 2°48.655 16.7077 0.052911 0.316632 -0.478207
2009-12-09 08:21:16 51°21.3 2°48.64 16.7139 0.052911 0.316638 -0.443383
2009-12-09 08:21:21 51°21.313 2°48.626 16.7165 0.052911 0.316638 -0.443383
2009-12-09 08:21:26 51°21.325 2°48.611 16.6932 0.052911 0.316644 -0.443383
2009-12-09 08:21:31 51°21.338 2°48.596 16.7234 0.052911 0.316644 -0.443383
2009-12-09 08:21:36 51°21.351 2°48.581 16.7084 0.052911 0.316657 -0.443383
2009-12-09 08:21:41 51°21.364 2°48.566 16.7097 0.052911 0.316651 -0.478207
2009-12-09 08:21:46 51°21.377 2°48.55 16.7119 0.052911 0.316657 -0.478207
2009-12-09 08:21:51 51°21.39 2°48.535 16.7227 0.052911 0.316657 -0.478207
2009-12-09 08:21:56 51°21.403 2°48.52 16.7234 0.052911 0.316663 -0.478207
2009-12-09 08:22:01 51°21.415 2°48.505 16.7159 0.052911 0.316663 -0.443383
2009-12-09 08:22:06 51°21.428 2°48.489 16.7253 0.052911 0.31667 -0.443383
2009-12-09 08:22:11 51°21.441 2°48.474 16.7167 0.052911 0.31667 -0.443383
2009-12-09 08:22:16 51°21.453 2°48.459 16.7125 0.052911 0.316676 -0.478207
2009-12-09 08:22:21 51°21.467 2°48.445 16.701 0.052911 0.316676 -0.478207
2009-12-09 08:22:26 51°21.479 2°48.429 16.7114 0.052911 0.316676 -0.443383
2009-12-09 08:22:31 51°21.492 2°48.414 16.7272 0.052911 0.316676 -0.478207
2009-12-09 08:22:36 51°21.505 2°48.399 16.7138 0.052911 0.316682 -0.443383
2009-12-09 08:22:41 51°21.518 2°48.384 16.7219 0.052911 0.316676 -0.443383
2009-12-09 08:22:46 51°21.531 2°48.369 16.7347 0.052911 0.316689 -0.443383
2009-12-09 08:22:51 51°21.544 2°48.354 16.7145 0.052911 0.316689 -0.443383
2009-12-09 08:22:56 51°21.556 2°48.34 16.7357 0.052911 0.316695 -0.443383
2009-12-09 08:23:01 51°21.569 2°48.325 16.7167 0.052911 0.316701 -0.443383
2009-12-09 08:23:06 51°21.582 2°48.31 16.7198 0.052911 0.316695 -0.443383
2009-12-09 08:23:11 51°21.595 2°48.295 16.7383 0.052911 0.316708 -0.478207
2009-12-09 08:23:16 51°21.608 2°48.28 16.7378 0.052911 0.316708 -0.478207
2009-12-09 08:23:21 51°21.621 2°48.265 16.7361 0.052911 0.316708 -0.478207
2009-12-09 08:23:26 51°21.633 2°48.25 16.7403 0.052911 0.316708 -0.478207
2009-12-09 08:23:31 51°21.647 2°48.235 16.7468 0.052911 0.316708 -0.443383
2009-12-09 08:23:36 51°21.659 2°48.219 16.7204 0.052911 0.316714 -0.478207
2009-12-09 08:23:41 51°21.672 2°48.204 16.7204 0.052911 0.31672 -0.443383
2009-12-09 08:23:46 51°21.685 2°48.189 16.748 0.052911 0.31672 -0.478207
2009-12-09 08:23:51 51°21.698 2°48.174 16.7361 0.052911 0.31672 -0.478207
2009-12-09 08:23:56 51°21.711 2°48.159 16.7266 0.052911 0.316726 -0.443383
2009-12-09 08:24:01 51°21.724 2°48.144 16.7456 0.052911 0.316726 -0.443383
2009-12-09 08:24:06 51°21.737 2°48.13 16.7301 0.052911 0.316739 -0.443383
2009-12-09 08:24:11 51°21.749 2°48.114 16.7461 0.052911 0.316733 -0.443383
2009-12-09 08:24:16 51°21.762 2°48.099 16.7358 0.052911 0.316739 -0.443383
2009-12-09 08:24:21 51°21.775 2°48.084 16.7402 0.052911 0.316739 -0.443383
2009-12-09 08:24:26 51°21.788 2°48.069 16.7497 0.052911 0.316745 -0.478207
2009-12-09 08:24:31 51°21.801 2°48.054 16.7355 0.052911 0.316752 -0.443383
2009-12-09 08:24:36 51°21.814 2°48.039 16.7453 0.052911 0.316745 -0.443383
2009-12-09 08:24:41 51°21.827 2°48.025 16.7494 0.052911 0.316758 -0.443383
2009-12-09 08:24:46 51°21.84 2°48.01 16.7525 0.052911 0.316758 -0.443383
2009-12-09 08:24:51 51°21.852 2°47.995 16.7409 0.052911 0.316758 -0.443383
2009-12-09 08:24:56 51°21.865 2°47.98 16.7532 0.052911 0.316764 -0.443383
2009-12-09 08:25:01 51°21.878 2°47.965 16.7378 0.052911 0.316764 -0.443383
2009-12-09 08:25:06 51°21.891 2°47.95 16.742 0.052911 0.316771 -0.443383
2009-12-09 08:25:11 51°21.904 2°47.935 16.7447 0.052911 0.316771 -0.443383
2009-12-09 08:25:16 51°21.917 2°47.92 16.7655 0.052911 0.316777 -0.443383
2009-12-09 08:25:21 51°21.93 2°47.905 16.7547 0.052911 0.316777 -0.443383
2009-12-09 08:25:26 51°21.943 2°47.89 16.7572 0.052911 0.31679 -0.443383
2009-12-09 08:25:31 51°21.956 2°47.875 16.7477 0.052911 0.316783 -0.443383
2009-12-09 08:25:36 51°21.969 2°47.86 16.7466 0.052808 0.316155 -0.443383
2009-12-09 08:25:41 51°21.982 2°47.845 16.7606 0.052808 0.316161 -0.478207
2009-12-09 08:25:46 51°21.995 2°47.83 16.7622 0.052808 0.316155 -0.443383
2009-12-09 08:25:51 51°22.008 2°47.816 16.7704 0.052808 0.316155 -0.443383
2009-12-09 08:25:56 51°22.02 2°47.8 16.7452 0.052808 0.316167 -0.443383
2009-12-09 08:26:01 51°22.033 2°47.785 16.7679 0.052808 0.316167 -0.443383
2009-12-09 08:26:06 51°22.046 2°47.77 16.7724 0.052808 0.316174 -0.443383
2009-12-09 08:26:11 51°22.059 2°47.755 16.7473 0.052808 0.31618 -0.443383
2009-12-09 08:26:16 51°22.072 2°47.739 16.7506 0.052808 0.316174 -0.443383
2009-12-09 08:26:21 51°22.085 2°47.724 16.7755 0.052808 0.316174 -0.443383
2009-12-09 08:26:26 51°22.098 2°47.71 16.7728 0.052808 0.31618 -0.443383
2009-12-09 08:26:31 51°22.111 2°47.694 16.7538 0.052808 0.316193 -0.443383
2009-12-09 08:26:36 51°22.124 2°47.68 16.7613 0.052808 0.316193 -0.443383
2009-12-09 08:26:41 51°22.137 2°47.665 16.7582 0.052808 0.31618 -0.443383
2009-12-09 08:26:46 51°22.15 2°47.651 16.7661 0.052808 0.316199 -0.443383
2009-12-09 08:26:51 51°22.163 2°47.636 16.7593 0.052808 0.316199 -0.443383
2009-12-09 08:26:56 51°22.176 2°47.622 16.7836 0.052808 0.316199 -0.443383
2009-12-09 08:27:01 51°22.189 2°47.608 16.7726 0.052808 0.316212 -0.443383
2009-12-09 08:27:06 51°22.202 2°47.593 16.7836 0.052808 0.316218 -0.443383
2009-12-09 08:27:11 51°22.215 2°47.578 16.762 0.052808 0.316218 -0.443383
2009-12-09 08:27:16 51°22.227 2°47.563 16.7787 0.052808 0.316212 -0.478207
2009-12-09 08:27:21 51°22.241 2°47.548 16.786 0.052808 0.316212 -0.478207
2009-12-09 08:27:26 51°22.253 2°47.533 16.7779 0.052808 0.316224 -0.443383
2009-12-09 08:27:31 51°22.266 2°47.518 16.7794 0.052808 0.316218 -0.443383
2009-12-09 08:27:36 51°22.279 2°47.503 16.7754 0.052808 0.316218 -0.443383
2009-12-09 08:27:41 51°22.293 2°47.488 16.7905 0.052808 0.31623 -0.443383
2009-12-09 08:27:46 51°22.306 2°47.474 16.7903 0.052808 0.316237 -0.443383
2009-12-09 08:27:51 51°22.319 2°47.458 16.7851 0.052808 0.316237 -0.443383
2009-12-09 08:27:56 51°22.332 2°47.444 16.7723 0.052808 0.31623 -0.443383
2009-12-09 08:28:01 51°22.345 2°47.429 16.778 0.052808 0.316243 -0.443383
2009-12-09 08:28:06 51°22.358 2°47.414 16.7866 0.052808 0.316243 -0.443383
2009-12-09 08:28:11 51°22.371 2°47.399 16.7984 0.052808 0.316243 -0.443383
2009-12-09 08:28:16 51°22.384 2°47.384 16.7779 0.052808 0.316249 -0.443383
2009-12-09 08:28:21 51°22.397 2°47.369 16.8014 0.052808 0.316249 -0.443383
2009-12-09 08:28:26 51°22.41 2°47.354 16.7874 0.052808 0.316256 -0.443383
2009-12-09 08:28:31 51°22.424 2°47.339 16.7991 0.052808 0.316256 -0.443383
2009-12-09 08:28:36 51°22.437 2°47.324 16.7864 0.052808 0.316262 -0.443383
2009-12-09 08:28:41 51°22.45 2°47.309 16.7934 0.052808 0.316268 -0.443383
2009-12-09 08:28:46 51°22.463 2°47.294 16.792 0.052808 0.316262 -0.443383
2009-12-09 08:28:51 51°22.476 2°47.279 16.7907 0.052808 0.316262 -0.443383
2009-12-09 08:28:56 51°22.489 2°47.265 16.7855 0.052808 0.316281 -0.443383
2009-12-09 08:29:01 51°22.502 2°47.249 16.7947 0.052808 0.316275 -0.443383
2009-12-09 08:29:06 51°22.515 2°47.234 16.7928 0.052808 0.316281 -0.443383
2009-12-09 08:29:11 51°22.528 2°47.219 16.814 0.052808 0.316287 -0.443383
2009-12-09 08:29:16 51°22.542 2°47.204 16.7913 0.052808 0.316294 -0.443383
2009-12-09 08:29:21 51°22.554 2°47.189 16.8109 0.052808 0.316294 -0.443383
2009-12-09 08:29:26 51°22.568 2°47.174 16.8079 0.052808 0.316287 -0.443383
2009-12-09 08:29:31 51°22.581 2°47.159 16.7991 0.052808 0.3163 -0.443383
2009-12-09 08:29:36 51°22.594 2°47.144 16.8036 0.052808 0.316294 -0.443383
2009-12-09 08:29:41 51°22.607 2°47.129 16.7979 0.052808 0.316306 -0.443383
2009-12-09 08:29:46 51°22.62 2°47.114 16.8127 0.052808 0.316313 -0.443383
2009-12-09 08:29:51 51°22.633 2°47.099 16.7939 0.052808 0.316313 -0.443383
2009-12-09 08:29:56 51°22.646 2°47.083 16.8097 0.052808 0.316313 -0.443383
2009-12-09 08:30:01 51°22.66 2°47.069 16.7961 0.052808 0.316325 -0.443383
2009-12-09 08:30:06 51°22.672 2°47.053 16.8086 0.052808 0.316325 -0.443383
2009-12-09 08:30:11 51°22.685 2°47.038 16.828 0.052808 0.316325 -0.443383
2009-12-09 08:30:16 51°22.699 2°47.023 16.7971 0.052808 0.316332 -0.443383
2009-12-09 08:30:21 51°22.711 2°47.007 16.8186 0.052808 0.316332 -0.443383
2009-12-09 08:30:26 51°22.724 2°46.993 16.8153 0.052808 0.316332 -0.443383
2009-12-09 08:30:31 51°22.737 2°46.978 16.8153 0.052808 0.316338 -0.443383
2009-12-09 08:30:36 51°22.75 2°46.963 16.8303 0.052808 0.316338 -0.443383
2009-12-09 08:30:41 51°22.764 2°46.948 16.8129 0.052808 0.316351 -0.443383
2009-12-09 08:30:46 51°22.776 2°46.931 16.8327 0.052808 0.316338 -0.443383
2009-12-09 08:30:51 51°22.789 2°46.916 16.8173 0.052808 0.316351 -0.443383
2009-12-09 08:30:56 51°22.802 2°46.9 16.8255 0.052808 0.316351 -0.443383
2009-12-09 08:31:01 51°22.815 2°46.884 16.806 0.052808 0.316357 -0.443383
2009-12-09 08:31:06 51°22.827 2°46.868 16.8321 0.052808 0.316351 -0.443383
2009-12-09 08:31:11 51°22.84 2°46.851 16.8288 0.052808 0.316363 -0.443383
2009-12-09 08:31:16 51°22.851 2°46.834 16.8353 0.052808 0.316363 -0.443383
2009-12-09 08:31:21 51°22.864 2°46.818 16.8348 0.052808 0.316363 -0.443383
2009-12-09 08:31:26 51°22.876 2°46.8 16.8289 0.052808 0.31637 -0.443383
2009-12-09 08:31:31 51°22.888 2°46.784 16.8366 0.052808 0.316376 -0.443383
2009-12-09 08:31:36 51°22.9 2°46.766 16.8284 0.052808 0.316376 -0.443383
2009-12-09 08:31:41 51°22.912 2°46.749 16.8305 0.052808 0.316382 -0.443383
2009-12-09 08:31:46 51°22.923 2°46.732 16.8192 0.052808 0.316382 -0.443383
2009-12-09 08:31:51 51°22.936 2°46.715 16.8418 0.052808 0.316382 -0.443383
2009-12-09 08:31:56 51°22.948 2°46.698 16.8337 0.052808 0.316382 -0.443383
2009-12-09 08:32:01 51°22.96 2°46.681 16.8456 0.052808 0.316389 -0.443383
2009-12-09 08:32:06 51°22.972 2°46.665 16.8461 0.052808 0.316389 -0.443383
2009-12-09 08:32:11 51°22.984 2°46.648 16.8249 0.052808 0.316401 -0.443383
2009-12-09 08:32:16 51°22.996 2°46.631 16.8419 0.052808 0.316408 -0.443383
2009-12-09 08:32:21 51°23.008 2°46.614 16.8419 0.052808 0.316401 -0.443383
2009-12-09 08:32:26 51°23.02 2°46.598 16.8309 0.052808 0.316401 -0.443383
2009-12-09 08:32:31 51°23.033 2°46.582 16.826 0.052808 0.316414 -0.443383
2009-12-09 08:32:36 51°23.044 2°46.564 16.849 0.052808 0.316414 -0.408559
2009-12-09 08:32:41 51°23.057 2°46.548 16.8542 0.052808 0.31642 -0.443383
2009-12-09 08:32:46 51°23.069 2°46.532 16.8517 0.052808 0.316427 -0.443383
2009-12-09 08:32:51 51°23.081 2°46.514 16.8619 0.052808 0.316427 -0.443383
2009-12-09 08:32:56 51°23.093 2°46.498 16.8569 0.052808 0.316427 -0.443383
2009-12-09 08:33:01 51°23.105 2°46.481 16.8399 0.052808 0.316433 -0.443383
2009-12-09 08:33:06 51°23.117 2°46.464 16.8529 0.052808 0.316433 -0.443383
2009-12-09 08:33:11 51°23.129 2°46.448 16.85 0.052808 0.316439 -0.443383
2009-12-09 08:33:16 51°23.14 2°46.431 16.8598 0.052808 0.316433 -0.443383
2009-12-09 08:33:21 51°23.153 2°46.414 16.8503 0.052808 0.316433 -0.443383
2009-12-09 08:33:26 51°23.164 2°46.398 16.8418 0.052808 0.316452 -0.443383
2009-12-09 08:33:31 51°23.176 2°46.381 16.8456 0.052808 0.316452 -0.443383
2009-12-09 08:33:36 51°23.188 2°46.364 16.8655 0.052808 0.316446 -0.443383
2009-12-09 08:33:41 51°23.2 2°46.348 16.8401 0.052808 0.316465 -0.443383
2009-12-09 08:33:46 51°23.212 2°46.33 16.8658 0.052808 0.316458 -0.443383
2009-12-09 08:33:51 51°23.225 2°46.314 16.8608 0.052808 0.316458 -0.443383
2009-12-09 08:33:56 51°23.236 2°46.297 16.8576 0.052808 0.316471 -0.443383
2009-12-09 08:34:01 51°23.248 2°46.28 16.869 0.052808 0.316471 -0.443383
2009-12-09 08:34:06 51°23.26 2°46.263 16.8572 0.052808 0.316471 -0.443383
2009-12-09 08:34:11 51°23.272 2°46.247 16.8506 0.052808 0.316471 -0.443383
2009-12-09 08:34:16 51°23.284 2°46.23 16.8643 0.052808 0.316484 -0.443383
2009-12-09 08:34:21 51°23.296 2°46.213 16.8641 0.052808 0.316484 -0.443383
2009-12-09 08:34:26 51°23.308 2°46.196 16.8823 0.052808 0.316477 -0.443383
2009-12-09 08:34:31 51°23.321 2°46.179 16.8568 0.052808 0.316496 -0.443383
2009-12-09 08:34:36 51°23.332 2°46.162 16.8668 0.052808 0.31649 -0.443383
2009-12-09 08:34:41 51°23.344 2°46.145 16.8789 0.052808 0.316503 -0.443383
2009-12-09 08:34:46 51°23.356 2°46.129 16.877 0.052808 0.316503 -0.443383
2009-12-09 08:34:51 51°23.368 2°46.111 16.8742 0.052808 0.316503 -0.443383
2009-12-09 08:34:56 51°23.38 2°46.095 16.8723 0.052808 0.316503 -0.443383
2009-12-09 08:35:01 51°23.392 2°46.078 16.8748 0.052808 0.316503 -0.443383
2009-12-09 08:35:06 51°23.405 2°46.062 16.8784 0.052808 0.316509 -0.443383
2009-12-09 08:35:11 51°23.417 2°46.045 16.8829 0.052808 0.316509 -0.443383
2009-12-09 08:35:16 51°23.429 2°46.029 16.8695 0.052808 0.316515 -0.443383
2009-12-09 08:35:21 51°23.441 2°46.012 16.8828 0.052808 0.316515 -0.443383
2009-12-09 08:35:26 51°23.454 2°45.996 16.8825 0.052808 0.316522 -0.443383
2009-12-09 08:35:31 51°23.466 2°45.979 16.8817 0.052808 0.316528 -0.443383
2009-12-09 08:35:36 51°23.478 2°45.962 16.8924 0.052808 0.316522 -0.443383
2009-12-09 08:35:41 51°23.491 2°45.946 16.8725 0.052808 0.316541 -0.443383
2009-12-09 08:35:46 51°23.502 2°45.929 16.8918 0.052808 0.316534 -0.443383
2009-12-09 08:35:51 51°23.515 2°45.912 16.8825 0.052808 0.316534 -0.443383
2009-12-09 08:35:56 51°23.527 2°45.896 16.89 0.052808 0.316541 -0.443383
2009-12-09 08:36:01 51°23.54 2°45.879 16.8931 0.052808 0.316547 -0.443383
2009-12-09 08:36:06 51°23.552 2°45.862 16.8752 0.052808 0.316547 -0.443383
2009-12-09 08:36:11 51°23.564 2°45.845 16.8849 0.052808 0.316553 -0.443383
2009-12-09 08:36:16 51°23.576 2°45.829 16.8851 0.052808 0.31656 -0.443383
2009-12-09 08:36:21 51°23.588 2°45.812 16.8959 0.052808 0.31656 -0.443383
2009-12-09 08:36:26 51°23.601 2°45.795 16.89 0.052808 0.316566 -0.443383
2009-12-09 08:36:31 51°23.612 2°45.777 16.8986 0.052808 0.316566 -0.443383
2009-12-09 08:36:36 51°23.625 2°45.762 16.8983 0.052808 0.316572 -0.443383
2009-12-09 08:36:41 51°23.637 2°45.744 16.8955 0.052808 0.316572 -0.443383
2009-12-09 08:36:46 51°23.649 2°45.728 16.8979 0.052808 0.316579 -0.443383
2009-12-09 08:36:51 51°23.661 2°45.711 16.8986 0.052808 0.316579 -0.443383
2009-12-09 08:36:56 51°23.673 2°45.694 16.897 0.052808 0.316585 -0.443383
2009-12-09 08:37:01 51°23.686 2°45.678 16.9113 0.052808 0.316585 -0.443383
2009-12-09 08:37:06 51°23.698 2°45.661 16.8864 0.052808 0.316598 -0.443383
2009-12-09 08:37:11 51°23.71 2°45.644 16.9024 0.052808 0.316591 -0.443383
2009-12-09 08:37:16 51°23.722 2°45.628 16.9102 0.052808 0.316598 -0.443383
2009-12-09 08:37:21 51°23.734 2°45.611 16.8934 0.052808 0.316598 -0.443383
2009-12-09 08:37:26 51°23.746 2°45.594 16.905 0.052808 0.316604 -0.443383
2009-12-09 08:37:31 51°23.758 2°45.578 16.9085 0.052808 0.316604 -0.443383
2009-12-09 08:37:36 51°23.77 2°45.561 16.9084 0.052705 0.315968 -0.443383
2009-12-09 08:37:41 51°23.782 2°45.545 16.9021 0.052808 0.316617 -0.443383
2009-12-09 08:37:46 51°23.794 2°45.528 16.9119 0.052705 0.315981 -0.443383
2009-12-09 08:37:51 51°23.807 2°45.511 16.9095 0.052705 0.315981 -0.443383
2009-12-09 08:37:56 51°23.819 2°45.495 16.9193 0.052705 0.315987 -0.443383
2009-12-09 08:38:01 51°23.83 2°45.477 16.914 0.052705 0.315987 -0.443383
2009-12-09 08:38:06 51°23.843 2°45.461 16.9216 0.052705 0.315993 -0.443383
2009-12-09 08:38:11 51°23.855 2°45.444 16.9014 0.052705 0.316 -0.443383
2009-12-09 08:38:16 51°23.866 2°45.426 16.9349 0.052705 0.315993 -0.443383
2009-12-09 08:38:21 51°23.879 2°45.41 16.911 0.052705 0.315993 -0.443383
2009-12-09 08:38:26 51°23.891 2°45.393 16.9327 0.052705 0.316006 -0.443383
2009-12-09 08:38:31 51°23.903 2°45.377 16.9156 0.052705 0.316006 -0.443383
2009-12-09 08:38:36 51°23.914 2°45.361 16.9225 0.052705 0.316012 -0.443383
2009-12-09 08:38:41 51°23.925 2°45.348 16.9284 0.052705 0.316025 -0.443383
2009-12-09 08:38:46 51°23.935 2°45.335 16.9268 0.052705 0.316031 -0.443383
2009-12-09 08:38:51 51°23.944 2°45.324 16.933 0.052705 0.316031 -0.443383
2009-12-09 08:38:56 51°23.953 2°45.315 16.9132 0.052705 0.316031 -0.443383
2009-12-09 08:39:01 51°23.961 2°45.307 16.9234 0.052705 0.316031 -0.443383
2009-12-09 08:39:06 51°23.97 2°45.302 16.9189 0.052705 0.316031 -0.443383
2009-12-09 08:39:11 51°23.979 2°45.298 16.9379 0.052705 0.316037 -0.443383
2009-12-09 08:39:16 51°23.986 2°45.295 16.9312 0.052705 0.316044 -0.443383
2009-12-09 08:39:21 51°23.994 2°45.294 16.9403 0.052705 0.316044 -0.443383
2009-12-09 08:39:26 51°24.002 2°45.293 16.938 0.052705 0.31605 -0.443383
2009-12-09 08:39:31 51°24.009 2°45.294 16.9395 0.052705 0.316056 -0.443383
2009-12-09 08:39:36 51°24.016 2°45.296 16.9316 0.052705 0.316069 -0.443383
2009-12-09 08:39:41 51°24.022 2°45.299 16.9381 0.052705 0.316075 -0.443383
2009-12-09 08:39:46 51°24.028 2°45.302 16.94 0.052705 0.316075 -0.443383
2009-12-09 08:39:51 51°24.034 2°45.306 16.9352 0.052705 0.316075 -0.443383
2009-12-09 08:39:56 51°24.04 2°45.311 16.9308 0.052705 0.316082 -0.443383
2009-12-09 08:40:01 51°24.045 2°45.315 16.9439 0.052705 0.316082 -0.443383
2009-12-09 08:40:06 51°24.049 2°45.321 16.9396 0.052705 0.316088 -0.443383
2009-12-09 08:40:11 51°24.054 2°45.326 16.9444 0.052705 0.316094 -0.408559
2009-12-09 08:40:16 51°24.058 2°45.332 16.9477 0.052705 0.316101 -0.443383
2009-12-09 08:40:21 51°24.062 2°45.338 16.9447 0.052705 0.316101 -0.443383
2009-12-09 08:40:26 51°24.065 2°45.344 16.9395 0.052705 0.316107 -0.443383
2009-12-09 08:40:31 51°24.068 2°45.35 16.9361 0.052705 0.316113 -0.443383
2009-12-09 08:40:36 51°24.071 2°45.356 16.9356 0.052705 0.316113 -0.443383
2009-12-09 08:40:41 51°24.074 2°45.363 16.9336 0.052705 0.31612 -0.443383
2009-12-09 08:40:46 51°24.076 2°45.369 16.9515 0.052705 0.31612 -0.443383
2009-12-09 08:40:51 51°24.078 2°45.376 16.9561 0.052705 0.31612 -0.443383
2009-12-09 08:40:56 51°24.08 2°45.382 16.9531 0.052705 0.316126 -0.443383
2009-12-09 08:41:01 51°24.082 2°45.389 16.9593 0.052705 0.31612 -0.443383
2009-12-09 08:41:06 51°24.084 2°45.396 16.9681 0.052705 0.316126 -0.408559
2009-12-09 08:41:11 51°24.085 2°45.403 16.9708 0.052705 0.316126 -0.443383
2009-12-09 08:41:16 51°24.087 2°45.41 16.9703 0.052705 0.316132 -0.443383
2009-12-09 08:41:21 51°24.088 2°45.417 16.9628 0.052705 0.316132 -0.443383
2009-12-09 08:41:26 51°24.089 2°45.425 16.9541 0.052705 0.316126 -0.443383
2009-12-09 08:41:31 51°24.09 2°45.434 16.9711 0.052705 0.316132 -0.443383
2009-12-09 08:41:36 51°24.09 2°45.442 16.9657 0.052705 0.316139 -0.443383
2009-12-09 08:41:41 51°24.091 2°45.451 16.957 0.052705 0.316145 -0.443383
2009-12-09 08:41:46 51°24.092 2°45.461 16.9857 0.052705 0.316151 -0.443383
2009-12-09 08:41:51 51°24.092 2°45.471 16.9739 0.052705 0.316151 -0.443383
2009-12-09 08:41:56 51°24.092 2°45.48 16.9598 0.052705 0.316151 -0.408559
2009-12-09 08:42:01 51°24.091 2°45.49 16.9643 0.052705 0.316158 -0.408559
2009-12-09 08:42:06 51°24.09 2°45.499 16.9816 0.052705 0.316158 -0.443383
2009-12-09 08:42:11 51°24.09 2°45.508 16.9632 0.052705 0.31617 -0.443383
2009-12-09 08:42:16 51°24.089 2°45.517 16.9896 0.052705 0.316177 -0.443383
2009-12-09 08:42:21 51°24.088 2°45.526 16.9952 0.052705 0.316177 -0.443383
2009-12-09 08:42:26 51°24.088 2°45.535 16.9912 0.052705 0.31617 -0.443383
2009-12-09 08:42:31 51°24.087 2°45.544 16.9939 0.052705 0.31617 -0.443383
2009-12-09 08:42:36 51°24.087 2°45.553 16.9753 0.052705 0.316177 -0.443383
2009-12-09 08:42:41 51°24.086 2°45.562 16.9851 0.052705 0.316183 -0.443383
2009-12-09 08:42:46 51°24.086 2°45.571 16.9863 0.052705 0.316183 -0.443383
2009-12-09 08:42:51 51°24.086 2°45.579 16.9962 0.052705 0.316183 -0.443383
2009-12-09 08:42:56 51°24.086 2°45.588 16.9983 0.052705 0.316196 -0.443383
2009-12-09 08:43:01 51°24.086 2°45.597 16.9771 0.052705 0.316202 -0.443383
2009-12-09 08:43:06 51°24.086 2°45.605 16.9727 0.052705 0.316202 -0.443383
2009-12-09 08:43:11 51°24.087 2°45.613 16.9796 0.052705 0.316208 -0.443383
2009-12-09 08:43:16 51°24.087 2°45.622 16.9934 0.052705 0.316208 -0.443383
2009-12-09 08:43:21 51°24.088 2°45.63 16.9996 0.052705 0.316221 -0.443383
2009-12-09 08:43:26 51°24.088 2°45.639 17.0056 0.052705 0.316221 -0.443383
2009-12-09 08:43:31 51°24.089 2°45.647 16.9998 0.052705 0.316227 -0.443383
2009-12-09 08:43:36 51°24.09 2°45.655 17.0073 0.052705 0.316227 -0.443383
2009-12-09 08:43:41 51°24.091 2°45.663 16.9968 0.052705 0.316234 -0.443383
2009-12-09 08:43:46 51°24.092 2°45.672 17.0038 0.052705 0.316234 -0.443383
2009-12-09 08:43:51 51°24.092 2°45.68 16.9925 0.052705 0.316234 -0.443383
2009-12-09 08:43:56 51°24.093 2°45.688 16.9923 0.052705 0.316234 -0.443383
2009-12-09 08:44:01 51°24.094 2°45.696 16.9988 0.052705 0.316234 -0.443383
2009-12-09 08:44:06 51°24.095 2°45.705 17.0153 0.052705 0.31624 -0.443383
2009-12-09 08:44:11 51°24.096 2°45.713 17.017 0.052705 0.31624 -0.443383
2009-12-09 08:44:16 51°24.096 2°45.721 17.021 0.052705 0.31624 -0.443383
2009-12-09 08:44:21 51°24.097 2°45.729 17.0099 0.052705 0.31624 -0.443383
2009-12-09 08:44:26 51°24.098 2°45.737 17.0118 0.052705 0.316246 -0.443383
2009-12-09 08:44:31 51°24.099 2°45.744 17.02 0.052705 0.316246 -0.443383
2009-12-09 08:44:36 51°24.099 2°45.752 17.0087 0.052705 0.316246 -0.478207
2009-12-09 08:44:41 51°24.1 2°45.76 17.0213 0.052705 0.316253 -0.443383
2009-12-09 08:44:46 51°24.101 2°45.768 17.0172 0.052705 0.316253 -0.443383
2009-12-09 08:44:51 51°24.102 2°45.776 17.0317 0.052705 0.316253 -0.443383
2009-12-09 08:44:56 51°24.102 2°45.784 17.0193 0.052705 0.316253 -0.443383
2009-12-09 08:45:01 51°24.103 2°45.792 17.0265 0.052705 0.316259 -0.443383
2009-12-09 08:45:06 51°24.104 2°45.8 17.0223 0.052705 0.316265 -0.478207
2009-12-09 08:45:11 51°24.105 2°45.807 17.0274 0.052705 0.316265 -0.443383
2009-12-09 08:45:16 51°24.106 2°45.815 17.0322 0.052705 0.316265 -0.443383
2009-12-09 08:45:21 51°24.107 2°45.823 17.0284 0.052705 0.316265 -0.443383
2009-12-09 08:45:26 51°24.108 2°45.831 17.0253 0.052705 0.316265 -0.443383
2009-12-09 08:45:31 51°24.108 2°45.839 17.0136 0.052705 0.316272 -0.478207
2009-12-09 08:45:36 51°24.109 2°45.847 17.0358 0.052705 0.316272 -0.443383
2009-12-09 08:45:41 51°24.11 2°45.855 17.0266 0.052705 0.316278 -0.443383
2009-12-09 08:45:46 51°24.11 2°45.863 17.036 0.052705 0.316278 -0.443383
2009-12-09 08:45:51 51°24.111 2°45.87 17.0428 0.052705 0.316278 -0.443383
2009-12-09 08:45:56 51°24.112 2°45.878 17.0378 0.052705 0.316278 -0.443383
2009-12-09 08:46:01 51°24.113 2°45.886 17.0415 0.052705 0.316278 -0.443383
2009-12-09 08:46:06 51°24.114 2°45.894 17.0365 0.052705 0.316284 -0.478207
2009-12-09 08:46:11 51°24.115 2°45.901 17.0314 0.052705 0.316284 -0.478207
2009-12-09 08:46:16 51°24.115 2°45.909 17.0272 0.052705 0.316284 -0.478207
2009-12-09 08:46:21 51°24.116 2°45.917 17.04 0.052705 0.316284 -0.478207
2009-12-09 08:46:26 51°24.117 2°45.924 17.0303 0.052705 0.316291 -0.478207
2009-12-09 08:46:31 51°24.118 2°45.932 17.0425 0.052705 0.316291 -0.478207
2009-12-09 08:46:36 51°24.119 2°45.94 17.0386 0.052705 0.316297 -0.478207
2009-12-09 08:46:41 51°24.119 2°45.948 17.0407 0.052705 0.316297 -0.478207
2009-12-09 08:46:46 51°24.12 2°45.956 17.04 0.052705 0.316297 -0.478207
2009-12-09 08:46:51 51°24.121 2°45.964 17.0598 0.052705 0.316297 -0.478207
2009-12-09 08:46:56 51°24.122 2°45.972 17.0592 0.052705 0.316297 -0.478207
2009-12-09 08:47:01 51°24.123 2°45.98 17.0492 0.052705 0.316303 -0.478207
2009-12-09 08:47:06 51°24.124 2°45.989 17.0589 0.052705 0.31631 -0.478207
2009-12-09 08:47:11 51°24.125 2°45.996 17.0453 0.052705 0.31631 -0.478207
2009-12-09 08:47:16 51°24.127 2°46.005 17.0609 0.052705 0.31631 -0.478207
2009-12-09 08:47:21 51°24.128 2°46.013 17.0566 0.052705 0.31631 -0.478207
2009-12-09 08:47:26 51°24.13 2°46.021 17.048 0.052705 0.31631 -0.478207
2009-12-09 08:47:31 51°24.131 2°46.029 17.0632 0.052705 0.316316 -0.478207
2009-12-09 08:47:36 51°24.133 2°46.038 17.0542 0.052705 0.316316 -0.478207
2009-12-09 08:47:41 51°24.135 2°46.046 17.0398 0.052705 0.316323 -0.478207
2009-12-09 08:47:46 51°24.137 2°46.054 17.0476 0.052705 0.316323 -0.478207
2009-12-09 08:47:51 51°24.138 2°46.062 17.0724 0.052705 0.316323 -0.478207
2009-12-09 08:47:56 51°24.14 2°46.07 17.0639 0.052705 0.316323 -0.478207
2009-12-09 08:48:01 51°24.142 2°46.078 17.0633 0.052705 0.316323 -0.478207
2009-12-09 08:48:06 51°24.144 2°46.086 17.0603 0.052705 0.316329 -0.478207
2009-12-09 08:48:11 51°24.147 2°46.095 17.0767 0.052705 0.316329 -0.478207
2009-12-09 08:48:16 51°24.149 2°46.103 17.0737 0.052705 0.316329 -0.478207
2009-12-09 08:48:21 51°24.152 2°46.111 17.0733 0.052705 0.316329 -0.478207
2009-12-09 08:48:26 51°24.155 2°46.118 17.0663 0.052705 0.316329 -0.478207
2009-12-09 08:48:31 51°24.157 2°46.126 17.0645 0.052705 0.316329 -0.478207
2009-12-09 08:48:36 51°24.16 2°46.134 17.062 0.052705 0.316335 -0.478207
2009-12-09 08:48:41 51°24.163 2°46.142 17.0652 0.052705 0.316335 -0.478207
2009-12-09 08:48:46 51°24.166 2°46.15 17.0745 0.052705 0.316335 -0.478207
2009-12-09 08:48:51 51°24.17 2°46.157 17.0858 0.052705 0.316335 -0.478207
2009-12-09 08:48:56 51°24.173 2°46.165 17.0859 0.052705 0.316342 -0.478207
2009-12-09 08:49:01 51°24.176 2°46.172 17.0803 0.052705 0.316342 -0.478207
2009-12-09 08:49:06 51°24.18 2°46.18 17.0793 0.052705 0.316342 -0.478207
2009-12-09 08:49:11 51°24.183 2°46.187 17.083 0.052705 0.316348 -0.478207
2009-12-09 08:49:16 51°24.187 2°46.194 17.0661 0.052705 0.316348 -0.478207
2009-12-09 08:49:21 51°24.191 2°46.201 17.0739 0.052705 0.316348 -0.478207
2009-12-09 08:49:26 51°24.195 2°46.208 17.0839 0.052705 0.316348 -0.478207
2009-12-09 08:49:31 51°24.199 2°46.215 17.0839 0.052705 0.316348 -0.478207
2009-12-09 08:49:36 51°24.203 2°46.222 17.1004 0.052705 0.316354 -0.478207
2009-12-09 08:49:41 51°24.207 2°46.229 17.0967 0.052705 0.316354 -0.478207
2009-12-09 08:49:46 51°24.211 2°46.236 17.0807 0.052705 0.316354 -0.478207
2009-12-09 08:49:51 51°24.216 2°46.242 17.0849 0.052705 0.316354 -0.478207
2009-12-09 08:49:56 51°24.22 2°46.249 17.0869 0.052705 0.316354 -0.478207
2009-12-09 08:50:01 51°24.224 2°46.256 17.101 0.052705 0.316354 -0.478207
2009-12-09 08:50:06 51°24.228 2°46.263 17.0879 0.052705 0.316361 -0.478207
2009-12-09 08:50:11 51°24.233 2°46.269 17.0794 0.052705 0.316361 -0.478207
2009-12-09 08:50:16 51°24.238 2°46.276 17.0932 0.052705 0.316361 -0.478207
2009-12-09 08:50:21 51°24.242 2°46.282 17.1022 0.052705 0.316361 -0.478207
2009-12-09 08:50:26 51°24.246 2°46.289 17.0982 0.052705 0.316361 -0.478207
2009-12-09 08:50:31 51°24.251 2°46.295 17.1066 0.052705 0.316361 -0.478207
2009-12-09 08:50:36 51°24.255 2°46.302 17.102 0.052705 0.316367 -0.478207
2009-12-09 08:50:41 51°24.26 2°46.308 17.1008 0.052705 0.316367 -0.513031
2009-12-09 08:50:46 51°24.264 2°46.314 17.1049 0.052705 0.316367 -0.478207
2009-12-09 08:50:51 51°24.269 2°46.321 17.1122 0.052705 0.316367 -0.478207
2009-12-09 08:50:56 51°24.273 2°46.327 17.0991 0.052705 0.316373 -0.478207
2009-12-09 08:51:01 51°24.278 2°46.334 17.1179 0.052705 0.316373 -0.478207